[{"header": {"dx": 0.06612293990616946, "dy": 0.0552356325346848, "nx": 98, "ny": 59, "la1": 35.046912555036876, "la2": 31.78801023549047, "lo1": -121.43107172385933, "lo2": -114.95102361305473, "refTime": "2026040813", "parameterCategory": 1, "parameterNumber": 2}, "data": [7.69, 7.16, 7.48, 6.9, 7.23, 7.32, 6.99, 6.6, 6.1, 6.6, 4.87, 1.64, -2.37, -5.52, -6.95, -7.21, -7.21, -7.6, -6.64, -7.21, -7.6, -7.94, -6.16, -5.58, -5.24, -4.43, -5.01, -5.6, -5.94, -5.94, -3.0, -0.0, -0.0, 5.36, 5.36, 5.81, 6.26, 6.71, 6.71, -0.0, 3.2, 7.63, 9.83, 9.96, 11.2, 11.83, 14.07, 14.88, 15.25, 12.37, 11.71, -0.0, 7.27, 7.27, 5.46, 5.46, 6.58, 7.9, 8.37, 9.32, 9.6, 10.28, 0.0, 9.39, 8.0, 7.47, 7.21, 8.24, 8.99, 10.89, 11.76, 11.57, 10.73, 10.28, 9.83, 9.76, 10.62, 11.62, -12.96, -12.35, -10.08, -6.79, -5.81, -4.24, -3.6, -4.92, 5.36, 6.26, 5.6, 5.2, 6.55, 7.4, 7.9, 8.53, 9.42, 9.5, 8.15, 5.84, 7.46, 7.16, 7.16, 7.16, 6.9, 6.94, 6.8, 6.8, 6.6, 6.1, 5.45, 4.81, 0.0, 0.0, -5.95, -5.9, -6.87, -8.43, -7.28, -5.82, -7.81, -8.41, -8.05, -7.06, -5.24, -4.19, -4.74, -5.36, -6.58, -6.71, -6.51, -5.21, -4.11, -0.0, 1.84, 5.01, 6.79, 7.15, 7.15, 7.6, 8.05, 9.54, 10.0, 9.69, 10.12, 12.78, 14.08, 14.82, 13.18, 10.47, -0.0, 4.6, 7.27, 6.14, 5.46, 5.7, 6.58, 7.81, 8.37, 9.1, 9.2, 9.75, 9.33, 6.64, 6.32, 6.9, 7.6, 8.67, 8.91, 9.97, 11.11, 11.44, 11.18, 10.08, 8.94, 8.94, 10.24, 11.62, -12.96, -12.35, -10.08, -6.79, -5.81, -4.24, -3.6, -4.92, 5.36, 6.26, 5.6, 5.2, 6.55, 7.4, 7.9, 8.53, 9.42, 9.5, 8.15, 5.84, 7.46, 7.69, 7.16, 7.16, 7.48, 7.23, 7.15, 7.21, 7.21, 6.4, 5.18, 2.95, 1.91, 2.19, 2.39, -2.39, -6.14, -6.3, -6.95, -6.98, -6.18, -8.15, -8.37, -8.41, -7.94, -5.24, -4.74, -4.74, -6.58, -7.06, -7.5, -7.15, -6.58, -5.06, 1.52, 6.32, 6.79, 7.6, 8.41, 8.48, 7.56, 7.78, 9.31, 11.08, 11.91, 12.46, 13.36, 12.07, 9.48, -0.0, 1.93, 5.9, 6.14, 6.14, 4.66, 5.46, 6.3, 7.27, 8.72, 8.72, 9.4, 8.93, 8.18, 6.64, 6.32, 7.07, 8.15, 9.2, 9.38, 10.0, 11.14, 12.14, 12.07, 9.96, 6.9, 7.94, 9.83, 12.96, -13.15, -13.41, -10.28, -5.69, -5.37, -5.37, -3.74, -5.2, -5.36, 6.26, 5.2, 6.99, 8.79, 8.22, 7.26, 7.72, 7.14, 7.59, 5.49, 4.81, 7.77, 7.46, 7.39, 6.87, 7.16, 6.9, 7.45, 7.54, 6.6, 6.57, 5.4, 3.67, 1.91, 1.69, 2.02, 2.49, 0.0, -4.8, -6.87, -7.56, -6.7, -6.52, -7.76, -8.55, -8.56, -8.49, -6.79, -5.36, -5.58, -7.45, -6.7, -7.76, -7.81, -8.24, 7.6, 8.05, 8.49, 9.7, 9.2, 9.08, 9.36, 10.32, 11.14, 10.47, 10.32, 10.33, 9.82, 7.27, 6.64, 1.75, 4.37, 6.64, 5.86, 4.2, 4.66, 5.72, 6.3, 6.95, 8.72, 9.4, 9.4, 8.93, 7.56, 6.3, 5.82, 7.13, 7.87, 8.12, 9.08, 10.01, 12.2, 13.77, 14.47, 11.62, 4.0, 6.01, 8.8, 12.14, 0.0, -13.23, -7.6, -3.22, -5.72, -5.2, -5.09, -4.82, -5.81, 5.2, 5.24, 8.79, 10.41, 9.08, 7.42, 6.59, 6.01, 5.24, 5.6, 6.16, 7.77, 7.46, 7.39, 6.87, 6.87, 6.6, 7.45, 7.15, 6.94, 6.88, 5.72, 4.13, 3.53, 1.69, 1.45, 1.76, 3.39, 0.0, -6.2, -9.09, -8.55, -7.63, -7.63, -8.37, -8.56, -9.11, -8.33, -8.05, -8.05, -5.37, -4.37, -6.11, -6.42, -4.25, 0.0, 3.87, 5.7, 7.56, 9.4, 10.43, 10.21, 9.39, 9.32, 10.41, 11.03, 10.7, 10.22, 9.29, 6.98, 6.63, 6.98, 6.98, 5.59, 4.2, 4.66, 6.3, 6.95, 6.95, 8.23, 8.99, 9.75, 8.55, 6.3, 5.72, 6.18, 7.4, 7.87, 7.13, 7.59, 8.97, 11.8, 14.38, 14.79, 14.99, 7.51, 1.95, 5.53, 8.34, 11.45, -10.01, -4.09, -4.09, -5.2, -6.57, -5.34, -3.79, 0.0, 5.69, 8.69, 9.92, 9.77, 8.47, 8.07, 3.91, 4.43, 6.07, 6.02, 8.67, 7.77, 7.46, 7.17, 6.87, 6.6, 6.87, 7.11, 7.23, 7.23, 6.52, 5.4, 4.31, 3.39, 3.25, 3.39, 1.52, 2.95, 1.91, -1.64, -7.85, -9.02, -8.38, -9.1, -8.4, -7.76, -7.64, -7.21, -4.6, -1.75, 0.0, 0.0, -1.75, -2.17, -2.28, 0.0, 1.46, 2.28, 6.9, 10.43, 9.17, 6.8, 5.8, 8.73, 11.18, 11.62, 12.52, 12.07, 10.68, 9.03, 8.91, 8.4, 7.67, 5.59, 4.2, 5.21, 6.95, 7.56, 7.56, 8.34, 10.08, 9.33, 7.68, 6.3, 6.11, 7.15, 8.18, 7.87, 6.87, 6.52, 8.99, 11.87, 13.25, 13.19, 13.99, 15.04, 9.8, 2.83, 3.76, 5.81, -7.51, -4.46, -4.43, -4.43, -5.77, -4.58, -1.95, 1.58, 5.57, 9.06, 8.97, 7.9, 9.36, 6.64, -6.0, -6.0, 5.75, 7.12, 9.13, 7.77, 7.46, 7.46, 7.39, 6.6, 6.6, 7.16, 6.9, 7.01, 6.52, 5.1, 3.53, 3.82, 6.17, 8.22, 4.8, 3.07, 4.75, 1.71, -4.39, -7.62, -8.72, -8.84, -8.05, -6.64, -6.21, -5.16, -3.14, -3.08, -3.14, -2.39, 0.0, 3.49, 1.05, 0.7, 0.69, 1.51, 5.55, 8.61, 6.96, 3.25, 0.0, 3.44, 9.17, 13.19, 12.21, 12.27, 10.7, 9.83, 10.28, 9.83, 8.05, 5.86, 5.21, 5.86, 6.64, 7.81, 8.18, 9.21, 9.42, 9.21, 7.33, 7.33, 6.98, 6.28, 7.76, 8.99, 8.6, 7.52, 8.94, 10.73, 11.62, 12.02, 14.11, 14.99, 15.65, 9.8, 8.49, 5.81, 4.4, -2.99, -2.99, -3.06, -3.7, -2.31, 0.0, 2.37, 4.51, 6.2, 6.21, 6.08, 5.86, -5.58, -7.15, -2.26, 4.74, 7.07, 8.4, 7.53, 7.77, 7.46, 7.17, 6.6, 6.6, 6.87, 7.16, 6.69, 6.57, 4.73, 3.53, 3.82, 6.71, 10.8, 9.2, 8.22, 8.01, 7.51, 7.19, 4.1, -1.55, -3.98, -6.62, -5.79, -4.34, -4.18, -5.62, -6.9, -6.71, -5.29, -2.19, 1.84, 4.8, 3.85, 1.5, 0.69, 2.34, 6.76, 6.24, 4.58, 2.19, 2.15, 4.54, 6.37, 7.43, 7.33, 9.24, 9.79, 10.65, 9.26, 8.05, 5.46, 5.46, 6.3, 7.56, 8.0, 8.54, 9.33, 9.6, 9.03, 8.4, 6.64, 4.46, 3.4, 6.9, 9.11, 8.94, 7.97, 7.31, 8.73, 10.22, 11.0, 11.71, 13.01, 12.45, 12.52, 10.35, 12.35, 14.16, 7.76, -1.0, -1.39, -0.67, 0.0, 1.43, 2.18, 2.92, 4.43, 5.86, 2.42, -3.35, -6.26, -6.64, 0.0, 4.29, 7.06, 7.07, 7.53, 7.77, 7.46, 7.17, 7.39, 6.6, 6.6, 7.16, 6.95, 6.07, 4.66, 3.68, 1.83, 2.81, 6.21, 9.77, 10.12, 9.17, 9.84, 10.41, 11.62, 12.04, 10.79, 5.4, -1.5, -3.53, -3.65, -7.41, -9.87, -6.7, -3.18, -1.03, 0.0, 3.65, 4.33, 3.67, 2.42, 1.07, 2.97, 3.99, 3.21, 3.29, 4.1, 2.45, 1.44, 1.84, 3.34, 6.44, 8.42, 8.6, 10.28, 5.63, 5.21, 6.3, 6.64, 7.13, 7.96, 9.4, 9.75, 9.16, 9.29, 8.48, -5.69, -4.02, -0.0, 7.6, 9.32, 8.94, 8.38, 7.47, 7.63, 9.06, 11.11, 11.45, 10.68, 9.74, 8.94, 10.18, 12.96, 15.2, 15.2, 1.58, 0.0, 0.0, 0.7, 1.45, 2.6, 1.39, 0.0, -5.9, -5.34, -5.32, -4.93, -4.19, 1.1, 4.74, 7.06, 6.44, 7.53, 7.53, 7.77, 7.46, 7.39, 6.87, 6.6, 6.87, 6.95, 5.8, 5.33, 5.2, 4.24, 2.76, 2.11, 4.58, 6.4, 6.1, 6.6, 5.28, 5.8, 6.67, 9.8, 10.47, 5.7, -6.64, -6.01, -7.59, -8.94, -5.55, 0.0, 0.0, 0.0, 0.0, 0.0, 1.45, 4.96, 4.03, 4.14, 4.6, 1.52, 1.84, 5.69, 7.15, -6.0, -5.06, -1.18, 1.0, 3.52, 4.0, 8.94, 4.96, 5.86, 7.21, 7.13, 7.87, 9.38, 10.38, 10.7, 10.08, 9.77, 7.6, -3.6, -3.91, -0.0, 6.79, 9.03, 9.21, 8.05, 8.33, 8.06, 10.18, 11.45, 11.23, 10.58, 9.79, 8.17, 8.67, 10.78, 13.74, 15.91, 14.36, 6.0, 3.4, 3.0, 4.47, 6.28, 7.89, 8.05, -4.84, -5.36, -4.4, -3.22, -1.72, 0.95, 3.9, 6.01, 5.37, 7.53, 7.53, 7.77, 7.69, 7.69, 7.39, 6.87, 6.87, 6.95, 6.51, 5.8, 6.48, 6.79, 5.28, 3.47, 3.0, 4.3, 5.17, 5.41, 5.37, 3.92, 2.87, 3.24, 5.63, 6.7, -4.2, -5.29, -5.29, -7.54, -3.65, 0.0, 1.61, 0.0, -3.07, -2.51, 0.0, 5.0, 5.86, 3.72, 7.15, -7.15, -3.47, -1.1, -0.0, -0.0, -4.47, -6.8, -8.05, -8.49, -8.49, -8.94, 6.32, 7.15, 7.44, 7.64, 8.72, 10.4, 11.64, 12.02, 11.18, 8.94, 8.05, -0.0, -5.36, -0.0, 6.63, 8.8, 8.58, 7.97, 7.63, 8.4, 9.74, 11.37, 11.11, 11.02, 11.02, 9.13, 7.64, 8.18, 11.36, 13.57, 14.53, 11.87, 10.12, 8.48, 7.15, 7.6, 7.11, 6.21, 4.85, 4.47, -2.3, -1.94, -0.72, 0.83, 3.79, 4.83, 4.16, 7.53, 7.99, 8.25, 8.18, 7.69, 7.69, 7.39, 6.87, 6.66, 6.25, 6.51, 6.73, 8.01, 8.1, 7.63, 5.93, 5.6, 6.28, 6.54, 7.04, 5.99, 4.58, 3.47, 4.65, 3.4, 0.0, -1.23, -2.53, -5.81, -1.32, -1.67, -6.26, -2.32, -2.8, 0.0, 0.0, 0.0, -2.4, -7.6, -6.7, -6.08, -5.37, -2.12, 6.8, 6.8, -4.74, -7.06, -7.06, -7.94, -8.33, -4.56, 0.0, 8.05, 7.2, 6.9, 8.17, 10.04, 11.88, 12.52, 10.23, 8.0, 8.49, -0.0, -6.32, -0.0, 6.32, 8.73, 10.4, 10.41, 10.18, 9.4, 9.9, 9.9, 9.75, 10.04, 11.28, 10.5, 8.23, 8.3, 9.92, 11.2, 10.8, 11.2, 12.65, 10.58, 9.39, 8.94, 8.49, 8.94, 6.26, 5.73, 2.2, 0.0, 0.0, 1.52, 3.9, 4.16, 3.55, 7.53, 7.99, 8.25, 8.18, 8.18, 7.69, 7.39, 7.17, 7.17, 6.94, 6.94, 7.17, 7.69, 8.76, 10.18, 10.27, 10.12, 8.01, 7.19, 6.9, 7.12, 6.88, 6.01, 4.07, 3.15, 2.73, 1.19, -2.4, -3.47, -6.23, -5.81, -4.65, -4.11, -2.6, -0.0, 6.26, -6.71, -7.21, -7.6, -7.6, -7.45, -5.36, -1.52, 4.65, 5.6, 0.0, -4.43, -6.13, -6.52, -5.37, -3.33, -1.96, 0.0, 0.0, 4.0, 8.05, 7.63, 10.28, 11.62, 6.71, 8.33, 8.94, -8.94, -8.49, -8.49, 5.37, 5.59, 7.9, 7.9, 9.3, 10.73, 9.7, 8.85, 7.97, 9.16, 10.68, 11.03, 9.2, 8.65, 8.58, 6.7, 6.91, 9.3, 8.73, 11.62, 12.39, 10.47, 8.91, 9.76, 8.49, 7.1, 5.09, 3.22, 2.53, 3.72, 4.01, 3.45, 2.49, 7.53, 7.99, 7.99, 7.93, 8.18, 7.17, 6.89, 6.89, 6.89, 6.89, 6.89, 7.17, 7.69, 8.43, 10.15, 10.95, 12.29, 11.2, 9.8, 8.44, 8.15, 8.87, 9.27, 9.52, 8.41, 7.27, 5.36, -5.21, -5.05, -5.72, -5.99, -5.73, -6.36, -5.2, -4.43, -2.8, -5.6, -7.15, -7.15, -6.79, -5.06, -2.64, 0.0, 3.11, 3.17, 0.0, -3.17, -4.88, -3.52, -3.87, -2.7, -1.33, 0.0, 0.0, 0.0, 2.08, 2.97, 7.47, 10.73, 6.71, -8.06, -8.48, -8.0, -7.6, -5.06, -3.2, 6.26, 1.52, -0.0, 1.32, -0.0, -0.0, 7.59, 9.83, 9.46, 10.5, 9.96, 7.82, 7.06, 6.44, 5.49, 6.01, 9.0, 9.48, 8.01, 10.91, 11.33, 9.45, 7.52, 6.71, 6.71, 5.32, 5.09, 4.98, 4.84, 4.6, 4.43, 0.0, 7.53, 7.99, 7.99, 7.93, 7.93, 7.64, 6.89, 6.89, 6.89, 6.89, 6.89, 7.88, 7.88, 8.43, 9.78, 10.89, 11.7, 11.79, 11.88, 10.81, 10.12, 9.48, 10.18, 10.98, 10.73, 10.03, 7.44, -8.94, -5.51, -4.77, -5.24, -4.8, -6.71, -7.15, -7.15, -7.6, -8.05, -7.15, -8.49, -6.4, -3.2, -1.07, 0.0, 0.97, 0.0, 0.0, -4.74, -1.98, -2.49, -3.35, -2.04, 0.0, 2.13, 0.0, 0.0, 0.0, 0.0, 2.33, 6.44, 7.6, -7.47, -7.2, -5.37, -3.91, -3.91, -3.91, -3.2, 7.15, -0.0, -0.0, -1.01, -1.69, -2.82, 10.73, 9.2, 8.4, 7.4, 6.99, 6.6, 6.52, 5.72, 5.59, 8.21, 9.6, 8.03, 6.63, 10.3, 10.6, 8.49, 8.05, 7.6, 7.11, 5.59, 5.09, 6.17, 5.2, 4.11, 4.11, 7.53, 7.99, 7.99, 7.93, 7.93, 7.64, 6.89, 6.89, 6.89, 6.89, 7.59, 7.59, 7.88, 8.12, 9.16, 10.23, 11.31, 11.74, 11.44, 11.44, 11.11, 10.77, 10.76, 11.54, 11.9, 11.66, 9.36, 3.68, -9.83, -7.45, -6.02, -5.34, -4.8, -7.6, -7.15, -6.71, -5.37, -3.4, -5.69, -6.8, -1.52, 0.0, 1.32, 0.0, 6.71, -3.2, -3.2, -0.0, 6.71, 0.0, 0.0, 1.1, 2.12, 6.71, -0.0, 0.0, 1.32, 3.2, 3.4, 0.0, -5.37, -7.6, -3.0, -3.0, -2.49, -2.66, -3.97, 8.05, -0.0, -1.63, -3.91, -3.65, -0.0, 11.62, 0.0, 5.69, 8.06, 8.48, 8.49, 8.05, 8.05, 7.37, 7.45, 7.98, 7.97, 6.26, 8.55, 9.83, 8.24, 7.6, 8.41, 5.75, 5.09, 5.59, 7.81, 5.94, 3.93, 3.93, 7.53, 7.99, 8.25, 7.99, 7.69, 7.64, 6.89, 6.84, 7.36, 7.36, 7.59, 7.59, 8.12, 8.58, 9.16, 9.61, 10.35, 11.06, 11.41, 11.77, 11.44, 11.04, 10.7, 11.09, 12.13, 13.19, 12.81, 12.13, 11.16, 12.07, -7.27, -4.83, -4.19, -5.69, -4.43, -4.74, -2.12, -0.0, -0.0, 0.0, 0.0, 0.0, 0.0, 0.0, 7.6, -0.0, -3.4, -0.0, -0.0, 5.06, 7.15, 7.15, -0.0, -0.0, -0.0, 7.15, 6.8, 8.05, 8.49, 8.94, 8.94, 5.69, 5.06, 6.71, 6.71, 5.81, 7.15, 0.0, 7.6, -2.8, -8.06, -11.18, -5.8, -2.82, -2.54, -8.49, -6.64, -6.95, -6.95, -6.32, -0.0, 8.05, 7.94, 7.98, 8.24, 6.61, 4.77, 4.34, 4.92, 7.74, 8.4, 7.4, 5.21, 5.82, 7.6, 6.4, 3.84, 3.84, 7.53, 7.99, 8.25, 8.25, 7.69, 7.69, 7.36, 7.1, 7.32, 7.59, 7.59, 7.82, 7.82, 8.58, 8.58, 9.33, 10.72, 11.06, 11.07, 10.73, 10.7, 10.7, 10.76, 11.05, 12.54, 14.42, 15.18, 14.73, 14.42, 13.96, 12.96, -0.0, -3.32, -2.32, -2.4, -3.97, -4.74, 6.26, 5.81, 4.11, 0.0, 0.0, 0.0, 0.0, 7.6, -5.69, -8.05, 7.6, -0.0, -0.0, -0.0, -0.0, -0.0, 7.6, 7.6, 7.6, 8.05, 8.05, 8.49, 8.49, 8.49, 5.69, 5.37, -0.0, -0.0, -1.84, 5.81, 3.2, 0.0, -7.9, -10.04, -8.22, -5.52, -4.6, -8.72, -9.21, -6.64, -6.95, -4.2, -6.01, -5.06, 6.26, 6.94, 8.63, 7.2, 6.52, 6.7, 5.36, 5.94, 6.55, 8.4, 7.4, 5.58, 6.18, 6.44, 5.58, 3.48, 3.48, 7.53, 7.99, 7.99, 8.69, 7.69, 7.69, 7.36, 7.1, 7.32, 7.32, 7.59, 7.82, 8.05, 8.53, 8.58, 10.36, 9.44, 10.1, 10.09, 10.51, 12.09, 12.91, 11.45, 10.47, 10.62, 13.48, 12.87, 13.7, 13.07, 12.38, 11.92, 8.53, -0.0, -1.75, -3.0, -3.76, -4.43, -5.36, 7.15, 0.0, 0.0, 0.0, 6.26, 6.71, -5.37, -5.69, -8.05, -8.05, 8.05, -0.0, -0.0, -0.0, -0.0, -0.0, 7.6, 8.05, 8.05, 8.49, 8.49, 8.49, 8.05, 7.6, -0.0, -0.0, -1.41, -3.22, 6.26, 4.74, 6.32, 7.59, 7.27, 7.9, 6.7, 0.0, -11.03, -10.73, 9.83, 9.83, 9.39, 8.49, -6.26, 7.6, 7.81, 7.68, 6.95, 5.36, 6.14, 7.9, 8.02, 6.48, 5.69, 6.7, 6.18, 5.69, 5.06, 5.21, 4.11, 4.11, 7.53, 7.99, 7.99, 8.42, 7.99, 7.69, 7.64, 7.36, 7.32, 7.32, 7.59, 7.82, 8.53, 8.53, 8.53, 8.9, 8.75, 8.75, 8.87, 9.92, 13.1, 12.96, 12.42, 10.47, 9.87, 11.63, 12.82, 12.05, 12.5, 10.85, 10.4, 7.59, -0.0, -2.17, -4.46, -4.74, -4.84, -4.11, -6.26, 6.26, -5.81, 5.36, -0.0, -1.41, -2.73, -5.37, -5.37, -7.6, -7.6, -0.0, -0.0, -0.0, -0.0, -0.0, 3.0, 5.06, 8.49, 7.6, 7.2, 8.49, 8.05, -0.0, -0.0, -3.2, -3.22, -5.2, -5.81, 6.0, 7.6, 8.41, 9.74, 12.31, 16.95, 18.72, 13.59, 8.53, 7.9, 7.59, 0.0, -7.15, -6.71, 8.05, 8.94, 8.06, 6.79, 5.06, 4.74, 5.24, 8.41, 5.59, 3.6, 5.82, 6.95, 4.83, 3.69, 4.56, 4.65, 4.65, 7.99, 7.99, 7.99, 8.42, 7.99, 7.69, 7.69, 7.36, 7.32, 7.54, 7.76, 8.28, 8.53, 8.53, 8.53, 9.28, 9.14, 8.75, 7.19, 8.4, 12.01, 12.36, 12.04, 11.38, 11.59, 12.42, 11.88, 11.2, 10.12, 8.53, 7.59, 8.49, -0.0, -0.0, -5.37, -5.58, -4.84, -4.84, -4.43, -3.0, -3.0, -0.0, -0.0, -1.98, -2.98, -5.37, -7.6, -7.6, -5.37, -5.06, -5.06, -5.06, -0.0, -0.0, -0.0, 6.79, 7.81, 7.81, 8.49, 5.69, 7.6, -0.0, -3.2, -6.4, -5.2, -5.51, -5.81, 6.26, 5.06, 5.31, 8.22, 11.97, 15.55, 16.54, 13.68, 8.31, 7.34, 3.56, -2.49, -7.37, -6.71, -7.15, -0.0, -2.26, -3.0, 5.36, 5.36, 5.81, 5.81, 5.94, 5.69, 6.04, 6.77, 4.03, 2.82, 3.6, 3.69, 3.69, 7.99, 7.99, 7.99, 8.42, 7.99, 7.69, 7.69, 7.36, 7.32, 8.0, 8.0, 8.0, 8.0, 8.53, 8.84, 9.28, 9.42, 9.14, 8.46, 9.49, 10.87, 11.34, 11.01, 11.01, 12.07, 12.77, 12.52, 11.6, 9.64, 6.71, 7.6, 6.26, 6.71, -0.0, -5.06, -4.74, -5.6, -4.66, -5.2, -5.6, -2.8, -0.0, -0.0, -2.8, -4.11, -4.46, -5.69, -5.37, -5.06, -4.74, -5.06, -5.37, -5.06, -0.0, -0.0, 5.37, 4.22, 4.71, 8.49, 0.0, 0.0, -0.0, -2.26, -4.74, -5.6, -4.11, -5.2, -5.6, -0.0, 1.95, 4.6, 7.59, 11.53, 12.87, 2.17, 4.38, 7.4, 5.09, -2.2, -10.08, -8.05, -6.36, -5.58, -4.43, -4.74, -5.64, -5.81, 0.0, 5.84, 8.99, 9.3, 7.27, 7.27, 4.47, 1.66, 2.11, 2.29, 2.29, 7.99, 7.99, 7.99, 8.42, 8.42, 7.69, 7.93, 7.36, 7.32, 8.0, 8.0, 8.0, 8.24, 8.53, 9.28, 9.69, 9.42, 9.14, 9.42, 10.65, 11.29, 10.72, 10.4, 10.01, 10.7, 11.72, 12.08, 11.8, 9.69, 7.87, 5.69, 6.71, 5.81, 5.36, 5.36, -4.11, -4.8, -4.4, -4.4, -5.2, -2.8, -2.8, -1.98, -1.98, -2.98, -3.93, -5.06, -4.74, -4.43, -5.06, -5.37, -5.37, -5.37, -0.0, -0.0, -0.0, -0.0, -0.0, -0.0, 0.0, 0.0, -0.0, -0.0, -0.0, -3.0, -1.84, -0.0, -0.0, 6.71, 6.71, 8.05, 8.05, -0.0, -0.0, 0.0, 1.93, 4.89, 4.62, 2.57, -13.86, -10.28, -8.05, -6.36, -6.71, -6.71, -6.36, -3.0, 0.0, 5.98, 8.64, 9.92, 8.27, 7.27, 4.92, 4.02, 2.68, 2.44, 2.44, 7.99, 7.99, 7.99, 8.42, 8.42, 7.99, 7.69, 7.36, 7.32, 8.0, 8.0, 8.24, 8.24, 8.53, 8.97, 9.69, 10.08, 9.5, 10.08, 10.37, 11.36, 11.06, 10.43, 9.46, 9.71, 10.42, 11.73, 11.1, 9.96, 9.16, 9.6, 8.48, 7.63, 6.4, 6.71, 6.71, -6.26, -5.2, -4.8, -4.8, -4.11, -2.8, -3.0, -3.47, -4.11, -4.22, -6.0, -4.74, -5.06, -5.37, -5.69, -5.37, -5.37, -5.06, -0.0, -0.0, -2.6, -3.0, 7.6, 6.71, 5.36, 6.71, 6.71, -0.0, -1.55, -0.0, -0.0, -0.0, 7.6, 7.15, 0.0, 0.0, 11.18, -0.0, 0.0, 0.0, 1.75, 4.65, 7.93, 10.12, -12.52, -9.83, -8.49, -6.7, -5.37, -2.66, 0.0, 1.11, 4.2, 4.65, 7.02, 3.97, 2.98, 4.0, 4.02, 3.84, 3.72, 3.72, 7.99, 7.99, 7.99, 8.42, 8.42, 8.42, 7.69, 7.64, 7.32, 8.0, 8.0, 8.43, 8.68, 8.97, 8.97, 9.39, 10.08, 9.79, 10.1, 10.69, 11.05, 11.7, 11.07, 10.43, 10.07, 9.78, 10.43, 10.43, 10.18, 9.48, 10.19, 10.0, 8.43, 8.0, 7.07, 5.69, 7.6, -7.15, -6.71, -4.43, -4.74, -3.0, -3.2, -4.74, -5.21, -5.2, -5.4, -4.65, -4.43, -4.43, -4.11, -5.37, -5.06, -5.06, -5.37, -5.06, -4.74, -5.2, -6.71, 0.0, 5.81, 4.92, -5.36, -2.0, -1.84, -0.0, -0.0, -0.0, -0.0, 0.0, 3.4, 3.91, 8.93, 10.28, 9.83, 8.05, 4.84, 3.93, 7.44, 11.71, 13.41, -12.52, -10.84, -7.27, -4.14, -2.4, -1.14, 0.0, 1.73, 2.47, 2.8, 5.69, 6.36, 4.82, 4.24, 4.8, 4.84, 4.84, 7.99, 7.99, 7.99, 8.42, 8.42, 8.42, 8.42, 7.64, 7.76, 7.76, 8.0, 8.43, 8.68, 8.97, 8.97, 9.39, 10.08, 10.08, 10.39, 10.39, 10.74, 10.74, 11.39, 11.41, 11.06, 10.43, 10.12, 10.12, 9.1, 9.17, 8.85, 9.66, 9.7, 9.2, 7.87, 7.44, 6.01, 8.49, 8.05, -7.6, -5.37, -5.37, -5.37, -6.8, -6.79, -6.0, -6.0, -5.01, -4.43, -3.63, -3.35, -3.07, -3.0, -3.2, -5.37, -5.37, -3.0, -4.43, 6.71, 0.0, 5.06, 7.15, -0.0, -0.0, -0.0, -0.0, -0.0, -0.0, -7.15, 0.0, 3.2, 5.36, 6.7, 11.18, 12.96, 12.39, 11.45, 6.58, 5.4, 8.0, 0.0, -14.3, -13.01, -9.6, -4.43, -3.68, -1.18, 0.0, 0.0, -1.03, -3.72, 6.4, 7.89, 6.4, 5.34, 5.34, 5.75, 5.75, 7.99, 7.99, 7.99, 8.42, 8.42, 8.42, 8.11, 7.69, 7.53, 7.76, 8.0, 8.43, 8.68, 8.43, 8.97, 9.39, 9.69, 10.08, 10.08, 10.39, 10.74, 11.06, 11.06, 11.39, 11.73, 11.44, 10.46, 9.8, 8.76, 8.85, 8.53, 9.08, 9.16, 9.3, 8.73, 8.55, 8.43, 7.87, 6.64, 6.32, 8.94, -8.49, -8.49, -8.05, -7.6, -7.37, -6.8, -5.72, -4.74, -3.91, -3.63, -3.07, -2.79, -2.86, -4.43, -4.74, -6.4, -4.74, -6.26, 6.71, 0.0, 7.15, 5.37, 1.84, -0.0, -0.0, -3.8, -7.6, -7.15, 0.0, 1.73, 4.22, 5.15, 7.76, 9.29, 10.75, 11.99, 10.41, 4.43, 3.0, 0.0, -13.57, -14.3, -10.73, -5.72, -3.0, -2.26, -2.26, -3.68, -5.06, -5.24, 0.0, 6.28, 6.52, 5.46, 5.05, 5.05, 5.05, 7.99, 7.99, 7.99, 8.42, 8.42, 8.42, 8.11, 7.69, 7.64, 7.53, 8.18, 8.43, 8.43, 8.83, 9.12, 9.42, 9.69, 10.08, 10.08, 10.39, 10.74, 11.06, 11.06, 11.39, 11.39, 11.4, 11.1, 9.8, 9.48, 8.37, 8.97, 8.64, 8.73, 8.79, 8.93, 8.72, 8.93, 8.8, 7.51, 6.64, 0.0, 8.94, -8.49, -8.49, -8.05, -7.2, -7.07, -6.08, -5.06, -4.74, -4.11, -3.35, -3.07, -3.15, -3.78, -4.65, -6.0, -4.74, -4.43, -6.71, -7.15, 7.6, 6.4, 5.06, 3.8, -0.0, 8.49, 0.0, -5.37, 0.0, 2.4, 5.69, 5.44, 4.71, 4.75, 7.37, 10.28, -0.0, 6.26, 6.26, 0.0, 0.0, -13.59, -11.62, -7.15, -4.87, -4.01, -5.49, -5.59, -5.59, -5.72, -3.2, 3.68, 5.15, 5.24, 5.09, 5.09, 5.09, 7.99, 7.99, 7.99, 8.42, 8.42, 8.42, 8.11, 7.93, 7.64, 7.8, 8.18, 8.43, 9.09, 9.09, 9.09, 9.12, 9.42, 9.79, 9.79, 10.1, 10.74, 11.06, 11.06, 11.39, 11.07, 11.03, 10.73, 10.15, 9.48, 9.17, 9.3, 9.42, 9.08, 9.16, 8.93, 8.55, 8.72, 8.54, 7.68, 7.87, 6.64, 0.0, -8.49, -7.6, -7.15, -5.37, -6.01, -6.7, -6.08, -4.74, -4.11, -3.79, -3.48, -3.07, -3.48, -3.72, -4.43, -6.0, -5.94, -6.36, -6.71, -7.6, 6.71, 8.05, -0.0, -0.0, -0.0, 8.05, -7.6, -5.37, 0.0, 6.9, 7.6, 5.44, 3.77, 1.58, -4.6, -6.79, 5.81, 5.81, 4.11, 6.7, 0.0, -13.86, -9.11, -4.46, -4.37, -5.21, -4.43, -4.43, -4.43, -3.47, 0.0, 3.77, 4.42, 5.24, 5.06, 5.06, 7.99, 7.99, 7.99, 8.42, 8.42, 8.42, 8.11, 7.93, 7.93, 7.8, 7.53, 8.43, 8.83, 9.09, 9.75, 9.77, 9.79, 9.79, 9.79, 9.79, 10.74, 10.74, 10.74, 11.06, 11.69, 11.03, 10.73, 10.13, 9.48, 9.59, 9.64, 9.77, 9.89, 9.52, 9.16, 8.93, 8.55, 8.23, 8.37, 7.68, 6.95, 4.2, 0.0, -5.69, -6.4, -7.6, -6.01, -5.06, -3.79, -3.48, -3.48, -3.93, -3.48, -3.48, -3.84, -3.48, -3.43, -3.72, -5.6, -5.81, -6.58, -7.15, 0.0, -5.69, -5.69, -3.6, -3.6, -8.94, -6.26, -5.37, 0.0, 5.37, 8.17, 10.28, 9.36, 7.34, 0.0, -7.89, -4.92, 5.81, 4.8, 5.9, 3.14, -12.79, -12.71, -6.58, -5.2, -4.46, -2.95, -4.02, -5.37, -5.69, -3.15, 1.07, 2.98, 4.5, 4.83, 4.83, 7.73, 7.73, 7.99, 8.42, 8.42, 8.42, 8.11, 7.93, 8.38, 8.33, 8.04, 7.93, 8.83, 8.83, 9.48, 9.48, 10.08, 10.39, 10.08, 10.43, 10.43, 10.43, 10.74, 11.06, 11.37, 11.36, 10.73, 10.13, 10.24, 10.3, 10.38, 10.85, 10.56, 10.18, 9.81, 9.16, 8.79, 8.12, 8.23, 7.27, 6.95, 5.9, 4.2, 0.0, -6.8, -7.2, -8.49, -6.71, -3.35, -2.98, -2.53, -2.84, -3.58, -3.93, -3.48, -3.84, -4.09, -4.37, -4.8, -5.73, -6.71, -7.21, -5.69, -7.2, -8.05, -5.37, -6.71, -5.37, 5.06, 5.06, 2.32, 1.98, 6.13, 10.73, 13.25, 13.13, 11.33, 0.0, -8.4, 0.0, 4.4, 4.96, 5.0, 4.24, -6.0, -11.62, -9.97, -5.94, -5.81, -4.0, -3.48, -3.48, -3.22, -1.07, 2.17, 2.83, 3.6, 3.6, 7.73, 7.73, 7.73, 8.42, 8.42, 8.42, 8.11, 8.38, 8.38, 8.64, 8.33, 8.46, 8.18, 9.09, 9.48, 9.77, 9.77, 10.37, 10.37, 10.73, 10.73, 10.73, 10.74, 10.74, 11.06, 11.05, 10.73, 9.48, 9.36, 9.62, 10.63, 10.73, 10.79, 10.04, 10.04, 9.43, 9.16, 8.47, 8.12, 7.27, 6.95, 6.14, 5.63, 4.0, 0.0, -8.4, -8.91, -8.05, -5.94, -4.84, -4.46, -4.09, -3.48, -3.48, -3.93, -3.58, -3.84, -4.46, -5.02, -5.78, -6.26, -6.8, -7.63, -7.6, -5.69, -0.0, -0.0, 0.0, 2.4, 6.08, 3.45, 0.0, 2.17, 9.33, 13.86, 14.81, 12.13, 9.3, 6.32, 4.4, 6.64, 8.18, 9.97, 10.79, 11.6, 0.0, -12.52, -10.0, -5.21, -5.2, -5.36, -3.79, -2.53, -1.35, 0.0, 1.94, 2.31, 2.31, 7.73, 7.73, 7.73, 8.42, 8.42, 8.42, 8.42, 8.69, 8.38, 8.64, 8.64, 8.75, 8.75, 8.46, 9.77, 9.77, 9.77, 10.08, 10.39, 10.37, 10.73, 11.05, 11.05, 10.74, 11.05, 10.72, 10.42, 9.48, 9.17, 9.69, 9.21, 9.21, 9.57, 9.92, 9.56, 9.3, 9.04, 8.38, 8.02, 7.27, 7.27, 6.3, 6.14, 6.64, 4.2, 0.0, -9.83, -8.94, -7.2, -6.4, -5.95, -5.58, -5.21, -4.84, -4.46, -3.72, -3.72, -3.83, -4.73, -4.88, -5.32, -6.79, -8.49, -6.8, -2.4, -2.4, -0.0, 7.15, 3.6, 6.01, 6.01, 0.0, 0.0, 5.21, 11.44, 14.95, 9.46, 6.7, 8.05, 9.39, 10.28, 10.73, 11.18, 11.62, 12.27, 12.46, 9.17, -11.71, -8.0, -5.06, -5.06, -5.36, -3.48, -1.8, -0.83, 1.05, 0.89, 0.89, 7.29, 7.29, 7.73, 7.73, 8.42, 8.42, 8.11, 8.38, 8.38, 8.64, 8.64, 9.33, 9.06, 9.44, 9.79, 10.43, 10.74, 10.74, 10.39, 10.37, 10.73, 11.36, 11.05, 11.38, 10.75, 10.43, 10.12, 9.48, 9.76, 9.48, 9.2, 8.57, 8.87, 9.21, 9.21, 9.19, 8.94, 8.3, 7.59, 6.83, 6.77, 5.9, 6.3, 6.14, 5.21, 0.0, 0.0, -9.39, -8.94, -7.6, -6.8, -4.74, -4.74, -4.11, -4.46, -4.09, -3.72, -3.35, -3.74, -3.95, -7.15, -7.6, -7.6, -5.37, -5.06, -5.06, -5.06, -6.0, -8.05, -6.01, -5.69, -6.64, 0.0, 4.66, 10.36, 13.48, 11.95, 10.96, 10.0, 10.27, 11.11, 11.18, 11.62, 11.53, 11.53, 12.14, 12.56, 6.0, -10.6, -7.15, -3.49, -4.43, -4.92, -1.84, -1.6, 0.0, 0.0, 0.0, 6.99, 6.99, 7.44, 7.44, 7.83, 7.83, 8.11, 8.49, 8.75, 8.75, 9.02, 9.02, 9.42, 9.44, 9.5, 10.75, 10.75, 10.75, 10.75, 10.74, 11.05, 11.05, 11.05, 11.38, 11.06, 10.75, 10.43, 9.48, 9.46, 9.48, 9.53, 8.53, 9.21, 8.87, 9.14, 8.53, 8.86, 7.94, 7.97, 6.83, 6.31, 5.9, 6.4, 6.3, 6.95, 5.46, 0.0, 0.0, -9.39, -8.94, -6.01, -5.69, -5.37, -5.06, -4.43, -4.11, -3.48, -3.16, -3.16, -3.16, -4.24, -7.6, -6.8, -5.37, -7.6, -7.6, -6.71, -7.15, -7.6, -7.21, -6.32, -4.0, 6.64, 8.49, 10.82, 12.45, 12.96, 11.85, 11.5, 12.04, 12.02, 12.07, 11.71, 12.14, 12.14, 13.5, 13.86, 12.04, 7.59, -6.0, -4.43, -3.22, -3.79, -3.6, -1.55, -1.84, 0.0, 0.0, 6.72, 6.72, 7.16, 7.16, 7.4, 7.55, 7.8, 7.8, 8.46, 8.46, 8.72, 8.72, 9.12, 8.85, 9.5, 10.13, 10.75, 10.75, 10.44, 10.74, 10.74, 11.05, 11.05, 11.38, 11.06, 10.75, 10.43, 9.13, 9.15, 8.82, 9.17, 9.2, 8.87, 8.82, 8.82, 8.53, 8.53, 8.24, 7.59, 6.88, 6.31, 6.04, 5.63, 6.4, 6.95, 7.27, 5.7, 4.4, 0.0, 9.39, 8.94, -6.01, -5.69, -3.4, -3.2, -4.74, -4.11, -4.8, -4.0, -2.0, -2.2, -4.09, -7.2, -6.79, -7.6, 8.49, -7.6, -5.69, -8.05, -7.6, -7.6, -3.4, 8.18, 9.76, 12.35, 11.84, 11.62, 12.51, 14.31, 15.61, 13.86, 11.55, 10.32, 10.32, 10.32, 11.06, 11.06, 9.03, 5.26, 6.26, -2.8, -3.76, -2.4, -3.6, -2.53, -1.84, -0.94, -0.94, 6.92, 6.92, 7.16, 7.16, 7.55, 7.55, 7.8, 7.8, 8.46, 8.46, 8.72, 8.72, 9.12, 9.12, 9.22, 9.5, 10.45, 10.45, 10.75, 10.76, 11.06, 11.06, 11.38, 11.05, 11.06, 10.75, 10.43, 9.42, 8.78, 8.49, 8.82, 8.85, 9.16, 9.16, 8.82, 8.82, 8.21, 8.53, 7.59, 7.18, 6.31, 6.04, 6.18, 6.32, 6.79, 7.56, 8.03, 7.27, 6.95, 9.39, 8.94, -0.0, -0.0, -5.37, -5.37, -5.06, -4.43, -4.11, -3.16, -2.2, -2.2, -2.2, -7.6, -7.15, -7.6, 8.49, -5.06, -3.4, -5.69, -7.6, -7.6, -7.6, 9.39, 10.58, 12.52, 12.31, 10.46, 11.99, 14.95, 15.47, 12.94, 9.76, 7.97, 7.94, 7.94, 7.97, 7.52, 4.92, 4.92, 5.81, 6.26, -2.8, -2.73, -3.16, -3.58, -2.68, -3.2, -1.95, 6.92, 6.92, 7.16, 7.57, 7.83, 7.55, 7.8, 7.8, 8.46, 8.18, 8.72, 8.72, 9.12, 9.12, 9.12, 9.22, 9.5, 10.13, 10.45, 10.76, 11.06, 11.06, 11.06, 11.38, 10.74, 10.75, 9.46, 9.42, 9.08, 8.49, 8.52, 8.52, 8.84, 8.78, 8.78, 8.82, 8.21, 8.21, 7.9, 7.18, 6.42, 6.04, 4.96, 5.1, 6.45, 8.72, 9.09, 7.59, 7.27, 6.95, 8.94, 8.49, -0.0, -0.0, -5.37, -5.06, -4.74, -4.11, -3.16, -0.0, -0.0, -0.0, -0.0, -6.71, -7.15, -5.69, -5.69, -5.06, -5.37, 7.6, -7.15, -8.05, 8.94, 9.83, 13.41, 12.96, 9.45, 9.88, 12.4, 14.36, 11.6, 9.11, 8.24, 7.08, 4.85, 4.47, 5.36, 5.36, 5.81, 5.81, 5.81, 5.81, -3.79, -4.11, -4.4, -3.72, -2.99, -3.2, 6.92, 6.92, 6.92, 7.57, 7.83, 7.83, 8.2, 8.2, 8.46, 8.18, 8.72, 8.72, 8.72, 9.12, 9.12, 8.85, 9.22, 9.5, 10.13, 10.45, 11.06, 11.06, 11.06, 11.06, 11.06, 10.75, 9.46, 9.13, 9.08, 8.49, 8.52, 8.21, 8.84, 8.78, 8.78, 8.19, 8.21, 8.21, 8.24, 7.22, 6.7, 5.9, 5.76, 4.71, 5.36, 8.07, 9.08, 7.9, 6.42, 6.64, 8.0, 8.49, 8.05, 7.6, 7.6, -7.15, -4.74, -3.79, -3.48, -0.0, -0.0, -0.0, -1.7, -0.0, -7.6, -7.6, -5.06, -7.15, -7.6, 7.6, 7.6, -7.6, 0.0, 7.87, 10.73, 11.88, 10.23, 8.67, 10.35, 11.16, 10.55, 9.04, 7.74, 6.71, 5.81, 5.81, 6.64, 6.65, 6.21, 6.2, 5.81, 5.81, 5.81, -7.15, -6.26, -5.36, -3.79, -2.99, 6.5, 6.5, 6.92, 7.57, 7.57, 7.83, 7.95, 8.2, 8.2, 8.46, 8.46, 8.46, 8.72, 9.12, 8.85, 8.85, 9.22, 9.5, 9.84, 10.13, 10.75, 10.75, 10.75, 11.06, 11.06, 11.06, 9.76, 9.13, 8.17, 8.49, 7.82, 8.21, 8.22, 8.78, 8.78, 8.19, 7.9, 8.21, 7.9, 7.59, 7.18, 6.42, 5.64, 4.83, 5.06, 7.26, 7.9, 5.46, 5.31, 5.1, 6.01, 6.01, 8.05, 7.6, 7.6, 7.15, 6.71, -4.11, -0.0, -0.0, -0.0, -0.0, -0.0, -0.0, -0.0, -0.0, -7.15, 8.05, 7.15, 7.6, 8.05, -5.69, 0.0, 2.17, 8.67, 9.26, 11.03, 10.65, 9.32, 8.0, 5.21, 5.94, 4.92, 7.15, 7.55, 7.55, 7.1, 7.15, 7.6, 7.6, 6.71, 6.14, 4.43, 0.0, -8.05, -7.15, -6.0, -6.0, 6.53, 6.53, 6.92, 6.92, 7.57, 7.57, 8.22, 8.2, 8.2, 8.2, 8.46, 8.46, 8.46, 8.46, 8.85, 8.85, 8.85, 9.5, 9.5, 9.84, 10.44, 10.75, 10.75, 10.75, 10.75, 10.75, 10.11, 9.42, 8.46, 8.2, 7.82, 7.9, 8.53, 8.82, 8.78, 8.52, 7.9, 7.88, 7.59, 7.59, 7.22, 6.42, 6.42, 6.42, 6.41, 7.41, 5.98, 3.6, 3.91, 4.29, 4.22, 5.69, 5.69, 8.05, 7.6, 7.6, 6.71, -0.0, -0.0, -0.0, -0.0, -0.0, -1.55, -0.0, -0.0, -0.0, -0.0, 7.6, 7.15, 7.6, 8.05, -3.6, 0.0, 0.0, 2.28, 6.79, 8.87, 10.73, 9.39, 8.49, 7.6, 7.06, 8.24, 10.12, 10.24, 9.39, 7.6, 7.15, 7.15, 8.05, 8.05, 7.08, 5.72, 2.54, -6.01, -8.49, -8.49, -8.49, 6.53, 6.53, 6.92, 6.92, 7.57, 7.57, 8.22, 8.22, 8.22, 8.49, 8.2, 8.46, 8.46, 8.46, 8.85, 8.85, 8.85, 9.5, 9.5, 9.84, 10.13, 10.75, 10.75, 11.05, 11.05, 10.75, 10.11, 9.46, 8.83, 8.17, 8.2, 7.9, 8.21, 8.53, 8.82, 8.52, 8.52, 7.9, 7.59, 7.25, 6.92, 6.51, 6.42, 6.42, 7.13, 7.36, 7.27, 5.59, 4.37, 3.6, 3.97, 5.06, 5.37, 5.37, 7.6, 7.6, 7.15, -0.0, -0.0, -0.0, -0.0, -0.0, -1.55, -3.4, -0.0, -0.0, -0.0, -0.0, -0.0, 7.6, 8.05, -6.01, -2.17, 0.0, 2.58, 4.44, 6.87, 9.54, 11.18, 11.95, 10.99, 10.85, 13.39, 13.25, 12.47, 10.73, 8.49, 6.65, 6.21, 6.94, 7.1, 7.08, 6.13, 0.0, 0.0, -6.32, -6.32, -6.32, 6.53, 6.53, 7.19, 6.92, 7.57, 7.57, 7.83, 8.22, 8.49, 8.49, 8.49, 8.46, 8.85, 8.85, 8.85, 8.85, 8.85, 9.5, 9.5, 9.5, 10.13, 10.44, 10.75, 11.05, 11.05, 10.75, 10.11, 9.78, 8.83, 8.17, 8.49, 8.2, 7.9, 8.53, 8.82, 8.5, 8.52, 7.9, 7.58, 7.25, 6.95, 6.92, 6.88, 6.42, 6.83, 7.27, 7.47, 6.01, 5.59, 5.1, 5.69, 4.22, 5.06, 6.4, 7.6, 7.6, 7.15, -0.0, -0.0, -0.0, -0.0, -0.0, -0.0, -1.7, -0.0, -0.0, -0.0, -0.0, -0.0, -5.37, -8.94, -6.01, 0.0, 1.84, 3.11, 4.2, 7.33, 9.54, 11.18, 11.8, 12.19, 14.66, 16.79, 15.9, 13.8, 11.18, 9.39, 8.43, 7.74, 6.16, 8.06, 5.37, 1.73, 0.0, 0.0, -3.8, -3.8, -3.8, 6.53, 6.53, 7.19, 6.92, 6.92, 7.57, 7.57, 7.83, 8.49, 8.49, 8.49, 8.49, 8.46, 8.85, 8.85, 8.85, 8.85, 9.14, 9.5, 9.5, 9.5, 10.44, 10.44, 10.75, 11.05, 10.75, 10.43, 9.78, 8.83, 8.54, 8.17, 8.2, 8.2, 8.24, 8.82, 8.82, 8.22, 8.22, 7.58, 6.93, 6.95, 6.58, 6.92, 6.88, 7.27, 6.83, 7.4, 7.13, 5.72, 5.59, 6.01, 6.44, 6.32, 7.21, 6.79, 7.15, 7.15, 7.15, 4.74, 4.43, 2.6, -0.0, -0.0, -0.0, -1.84, -0.0, -0.0, -0.0, -3.2, -5.37, -7.63, -8.49, -4.0, 0.0, 2.97, 4.2, 7.81, 10.18, 9.97, 7.59, 9.34, 14.53, 17.85, 16.33, 13.59, 11.09, 10.28, 10.2, 9.04, 8.05, 6.79, 4.09, 3.47, 0.0, 0.0, -2.4, -2.4, -2.4, 6.53, 6.53, 6.76, 7.19, 7.44, 7.57, 7.57, 7.83, 8.22, 8.2, 7.8, 8.49, 8.75, 8.85, 8.85, 8.85, 8.85, 9.14, 9.14, 9.5, 9.5, 10.44, 10.44, 10.44, 10.44, 10.75, 10.11, 9.78, 9.48, 8.83, 8.54, 8.17, 8.85, 8.54, 9.15, 8.82, 8.53, 7.91, 7.58, 6.93, 6.64, 6.95, 7.27, 6.62, 6.95, 6.95, 6.95, 7.06, 6.79, 6.87, 7.07, 6.9, 7.47, 7.2, 7.15, 7.15, 7.15, 7.15, 4.74, 4.74, 4.43, 2.6, -0.0, -0.0, -0.0, -0.0, -0.0, -0.0, -0.0, -7.6, -8.06, -8.49, -8.49, -8.67, -9.39, -9.39, 9.39, 9.54, 6.95, 3.87, 6.24, 12.82, 17.43, 15.99, 14.65, 12.14, 10.73, 9.76, 8.48, 4.46, 4.4, 4.92, 3.79, 0.0, -1.32, -3.0, -3.0, -3.0, 6.53, 6.53, 6.76, 7.19, 7.19, 7.44, 7.83, 7.83, 7.83, 7.95, 7.8, 7.8, 8.49, 8.75, 9.14, 8.85, 8.85, 9.14, 9.14, 9.21, 9.21, 9.8, 10.44, 10.44, 10.44, 10.75, 10.11, 9.78, 9.48, 9.17, 8.83, 8.54, 8.85, 8.54, 8.85, 8.82, 8.53, 7.91, 7.27, 6.93, 6.64, 6.95, 6.65, 6.95, 6.95, 6.95, 6.64, 7.02, 6.73, 7.15, 6.91, 7.37, 7.2, 7.63, 7.37, 7.15, 6.71, 6.71, 6.71, 5.6, 4.43, 4.11, -0.0, -0.0, -0.0, -0.0, -0.0, -0.0, -0.0, 7.6, 8.49, -8.24, -8.94, -8.94, -9.39, -8.4, -0.0, 2.97, 2.97, 3.7, 6.3, 9.67, 13.76, 14.53, 14.51, 12.66, 9.54, 6.26, 6.26, 5.36, 5.81, -0.0, 4.92, -2.8, -3.0, -3.2, -3.2, -3.2, 6.8, 6.8, 7.04, 7.48, 7.19, 7.44, 8.11, 7.83, 7.83, 7.8, 7.8, 7.8, 8.46, 8.75, 9.14, 9.14, 8.85, 9.14, 9.14, 9.14, 9.5, 9.8, 10.44, 10.44, 10.44, 10.11, 10.11, 9.78, 9.48, 9.17, 9.15, 9.15, 8.85, 8.54, 8.85, 8.82, 8.53, 7.91, 7.56, 7.22, 6.93, 6.95, 6.95, 6.95, 6.95, 7.28, 6.98, 7.33, 7.41, 7.44, 7.42, 7.6, 7.81, 7.4, 7.45, 7.37, 7.15, 6.71, 6.26, 6.26, 5.6, 4.11, -0.0, -0.0, -0.0, -0.0, -0.0, -0.0, 2.4, -0.0, 8.49, 8.94, -8.94, -8.94, -8.94, -8.0, -4.0, -0.0, -0.0, 4.6, 6.32, 7.21, 8.22, 11.52, 13.74, 12.98, 5.36, 4.92, 2.2, 2.6, -0.0, -5.2, -4.4, -5.51, -4.43, -4.74, -4.74, -4.74, 6.8, 6.53, 6.76, 7.19, 7.19, 7.44, 8.11, 8.11, 7.83, 8.08, 8.2, 7.93, 8.46, 8.46, 8.75, 9.14, 9.14, 9.14, 9.14, 9.14, 9.5, 9.8, 10.1, 10.44, 9.8, 10.11, 9.76, 9.78, 9.13, 9.13, 9.15, 9.15, 8.85, 8.54, 8.85, 8.82, 8.53, 7.91, 7.56, 7.22, 6.93, 6.95, 6.95, 6.65, 6.95, 6.95, 7.27, 7.27, 7.33, 7.32, 7.44, 7.42, 7.6, 7.2, 7.47, 7.06, 6.94, 7.15, 6.71, 6.26, 5.81, 4.11, 3.79, -0.0, -0.0, -0.0, -0.0, -0.0, -0.0, -0.0, -0.0, 8.49, -0.0, -8.94, -8.94, -8.49, -6.01, -4.71, -0.0, 3.8, 6.01, 5.31, 6.32, 8.93, 13.8, 11.18, 5.7, -0.0, -0.0, 5.36, 6.26, -3.0, -5.09, -5.09, -4.65, -4.65, -4.65, -4.65, 6.53, 6.53, 6.53, 7.19, 7.19, 7.59, 7.85, 8.11, 8.11, 8.08, 8.2, 8.18, 8.18, 8.46, 8.46, 9.14, 9.14, 9.5, 9.5, 9.14, 9.5, 9.5, 9.8, 9.8, 9.8, 10.11, 9.76, 9.42, 9.13, 9.13, 9.15, 9.15, 8.85, 8.85, 8.85, 8.82, 8.53, 7.91, 7.27, 7.22, 6.93, 7.25, 6.95, 6.65, 6.95, 6.95, 6.95, 7.27, 7.33, 7.32, 7.67, 7.42, 7.6, 7.81, 7.2, 7.47, 6.8, 6.94, 6.71, 6.71, 5.81, 5.81, 3.79, -0.0, -0.0, -0.0, -0.0, -2.8, -1.98, -3.0, -5.06, 8.05, -0.0, -0.0, -8.94, -8.94, -8.06, -7.07, -6.01, -0.0, 4.71, 6.01, 6.44, 8.6, 15.65, 12.96, 3.4, -0.87, 4.47, 4.0, 5.51, 7.6, -5.6, -4.77, -3.93, -4.29, -4.29, -4.29, 6.8, 6.8, 6.53, 7.19, 7.19, 7.32, 7.57, 8.11, 8.11, 8.08, 8.2, 8.18, 8.18, 8.18, 8.46, 9.14, 9.14, 9.5, 9.5, 9.5, 9.5, 9.5, 9.8, 9.8, 9.8, 9.76, 9.46, 9.42, 9.13, 8.83, 9.15, 8.85, 8.85, 9.17, 9.15, 8.82, 8.53, 7.91, 7.27, 7.58, 6.93, 7.25, 6.95, 6.65, 6.95, 6.95, 6.95, 7.27, 7.33, 7.69, 7.67, 7.44, 7.2, 7.37, 7.2, 6.9, 7.06, 7.37, 6.94, 6.71, 6.26, 5.81, 5.81, 4.11, -0.0, -0.0, 6.71, -4.43, -4.74, -4.74, -7.15, -7.6, 8.05, 6.01, -6.32, -8.94, -8.06, -7.07, -6.01, -0.0, -0.0, 6.01, 7.47, 14.75, 16.49, 14.16, -0.0, -0.96, 3.58, 1.41, 3.48, 5.06, -6.71, -4.66, -3.58, -3.93, -3.93, -3.93, 6.8, 6.8, 6.8, 6.94, 7.19, 7.32, 7.57, 7.96, 8.22, 8.22, 8.2, 8.2, 8.18, 8.18, 8.46, 8.46, 9.14, 9.14, 9.5, 9.79, 9.5, 9.5, 9.8, 9.8, 10.11, 9.46, 9.46, 9.42, 9.13, 8.83, 9.15, 8.85, 9.17, 8.85, 8.85, 8.82, 8.53, 7.91, 7.27, 7.58, 6.93, 7.25, 6.95, 6.65, 6.95, 6.95, 6.95, 6.92, 7.33, 7.33, 7.06, 7.44, 7.2, 7.37, 7.07, 6.9, 6.52, 6.8, 6.94, 6.36, 6.71, 6.26, 6.26, 6.26, 6.26, 6.26, -0.0, -0.0, -5.06, -5.06, -7.6, -5.69, -5.37, 7.15, 7.15, -8.49, -8.49, -8.05, -8.49, 8.05, 8.05, 8.05, 8.41, 13.86, 15.65, 11.09, -3.39, -2.26, -2.84, 0.0, 0.0, 0.0, -5.37, -4.46, -3.48, -3.79, -3.79, -3.79, 6.8, 6.8, 6.8, 6.94, 6.94, 7.59, 7.57, 8.22, 8.22, 7.96, 7.95, 8.2, 8.46, 8.18, 8.18, 8.46, 8.85, 9.14, 9.5, 9.79, 9.79, 9.5, 9.8, 9.8, 9.8, 9.46, 9.09, 9.13, 9.13, 8.83, 9.15, 8.85, 9.17, 8.85, 8.85, 8.53, 8.53, 7.91, 7.58, 7.58, 7.28, 6.95, 6.95, 6.95, 6.95, 6.95, 6.95, 7.27, 6.98, 7.33, 7.06, 7.06, 7.2, 6.91, 7.07, 6.7, 6.9, 7.06, 6.8, 6.79, 6.71, 6.71, 6.26, 6.26, 6.71, 6.71, 4.74, -0.0, -5.06, -7.15, -8.05, -8.05, -5.69, -5.69, -7.6, -7.6, -5.69, -3.6, 0.0, 0.0, -5.69, 0.0, 6.61, 10.84, 12.83, 6.2, -4.37, -2.76, -2.84, -3.82, -3.22, -2.54, -5.69, -4.43, -3.22, -3.48, -3.48, -3.48, 6.8, 6.8, 6.8, 7.22, 6.94, 7.33, 7.59, 7.57, 7.85, 8.23, 8.22, 8.2, 8.2, 8.46, 8.46, 8.46, 8.85, 8.85, 9.5, 9.79, 9.79, 9.79, 10.1, 9.8, 9.46, 9.46, 9.42, 9.13, 9.13, 9.15, 8.85, 8.85, 8.85, 8.85, 8.85, 8.53, 8.84, 8.22, 7.9, 7.58, 7.28, 6.95, 6.65, 6.95, 6.95, 6.95, 6.95, 7.27, 6.98, 7.33, 7.69, 7.06, 7.15, 6.91, 6.91, 6.7, 6.9, 6.52, 6.8, 6.94, 6.79, 7.15, 6.71, 6.71, 6.71, 6.71, 6.71, 4.74, -4.43, -7.6, -7.6, -8.05, -6.01, -8.49, -8.49, -8.49, -6.01, -2.06, -1.75, -2.06, -2.54, 3.4, 5.81, 8.06, 9.96, 6.95, -4.29, -3.48, -3.14, -4.02, -4.6, -6.4, -7.2, -3.0, -1.3, -2.6, -2.6, -2.6, 6.8, 6.8, 6.8, 7.22, 7.19, 7.59, 7.59, 7.59, 7.85, 7.85, 7.96, 8.2, 8.2, 8.46, 8.46, 8.46, 8.85, 8.85, 9.22, 9.22, 10.13, 10.13, 9.79, 9.8, 9.46, 9.46, 9.42, 9.13, 8.83, 9.15, 8.85, 8.54, 8.85, 8.85, 8.53, 8.84, 8.84, 8.22, 8.22, 7.58, 7.58, 7.59, 7.27, 7.58, 6.95, 7.28, 6.95, 7.27, 7.27, 7.33, 6.98, 7.06, 7.15, 6.79, 6.91, 7.07, 6.7, 6.9, 6.52, 6.8, 6.94, 6.79, 7.15, 7.15, 7.15, 7.15, 7.15, 5.06, -0.0, -7.15, -7.6, -7.6, -5.37, -7.6, -7.6, -8.05, -8.05, -2.17, -1.75, -3.15, -1.58, 0.0, 5.37, 6.71, 9.39, 9.39, -3.2, -3.48, -4.09, -5.29, -5.73, -7.06, -3.97, 0.0, 0.0, -1.84, -1.84, -1.84, 6.8, 6.8, 6.8, 7.22, 7.19, 7.19, 7.87, 8.15, 7.85, 7.85, 8.23, 7.95, 8.2, 8.46, 8.46, 8.46, 8.85, 8.85, 8.85, 9.49, 9.84, 10.13, 10.13, 9.8, 9.46, 9.46, 9.13, 9.13, 8.83, 8.85, 8.49, 8.54, 8.85, 8.53, 8.53, 8.53, 8.52, 8.22, 8.22, 7.58, 7.58, 7.59, 7.59, 7.58, 7.58, 7.28, 7.28, 7.27, 7.27, 7.33, 6.98, 7.06, 7.06, 7.15, 6.91, 6.91, 6.7, 6.7, 6.9, 7.06, 6.4, 6.94, 6.79, 6.4, 7.15, 7.15, 7.15, 7.15, -0.0, -7.15, -5.06, -5.06, -5.06, -7.15, -7.21, -5.37, -3.6, -2.54, -1.67, -2.69, -1.58, 0.0, 2.06, 6.4, 8.94, 10.28, 9.83, -3.72, -4.43, -5.01, -5.64, -6.94, -3.4, 0.0, 0.0, -2.06, -2.06, -2.06, 6.8, 6.8, 6.8, 7.22, 7.48, 7.48, 7.87, 8.15, 8.15, 8.23, 8.23, 8.22, 8.2, 8.2, 8.46, 8.58, 8.58, 8.85, 8.85, 9.22, 9.49, 9.84, 10.13, 10.13, 9.16, 8.81, 9.13, 8.74, 8.78, 8.49, 8.49, 8.2, 8.2, 8.53, 8.53, 8.53, 8.84, 8.22, 8.22, 7.9, 7.9, 7.59, 7.59, 7.91, 7.58, 7.9, 7.28, 7.61, 7.27, 7.27, 7.33, 7.06, 7.06, 7.15, 6.79, 6.91, 6.55, 6.99, 7.2, 6.52, 7.06, 6.8, 5.95, 6.79, 6.4, 5.06, 7.15, 7.6, 7.6, 7.15, 0.0, -5.37, -5.06, -7.15, -6.4, -5.37, -5.69, -5.69, -4.46, -3.15, -3.15, 0.0, 1.67, 5.69, 8.91, 11.02, 10.84, 6.64, -2.06, -3.6, -4.56, -8.06, -6.32, 0.0, 0.0, 0.0, 0.0, 0.0, 6.8, 6.8, 6.8, 7.51, 7.51, 7.78, 7.87, 7.87, 8.15, 8.23, 8.23, 8.22, 8.2, 8.2, 8.2, 8.2, 8.58, 8.58, 8.85, 8.85, 9.22, 9.84, 10.13, 9.84, 9.16, 9.17, 9.13, 8.46, 8.78, 8.49, 8.49, 8.2, 7.9, 8.21, 8.21, 8.21, 8.53, 8.22, 8.22, 8.54, 8.21, 7.9, 7.9, 7.91, 7.91, 7.9, 7.9, 7.61, 7.27, 7.27, 7.33, 6.98, 7.06, 7.06, 6.79, 6.79, 7.2, 6.99, 6.7, 7.2, 6.52, 7.06, 6.8, 6.32, 5.37, 5.37, 0.0, 0.0, 0.0, 0.0, 0.0, 0.0, 6.71, 7.6, -6.71, -6.8, -6.08, -6.7, -6.7, -4.46, -2.06, 0.0, 2.69, 5.03, 8.0, 11.06, 11.46, 10.73, -0.0, -4.4, -4.0, -7.07, -8.94, 0.0, 2.69, 4.71, 4.71, 4.71, 7.09, 7.09, 7.34, 7.78, 7.78, 7.78, 7.87, 7.87, 7.87, 8.23, 8.23, 8.22, 8.2, 8.2, 8.2, 8.2, 8.58, 8.58, 8.58, 8.85, 9.22, 9.5, 9.84, 9.84, 9.5, 9.17, 8.81, 8.46, 8.46, 8.49, 8.49, 8.2, 7.9, 8.21, 8.21, 7.91, 8.22, 8.22, 8.22, 8.21, 8.21, 8.21, 8.21, 7.91, 7.91, 8.24, 7.9, 7.61, 7.61, 7.27, 7.33, 7.33, 7.06, 7.06, 7.44, 6.79, 7.2, 7.2, 6.99, 6.7, 7.2, 6.52, 6.08, 6.08, 6.32, 5.37, 0.0, 0.0, 0.0, 0.0, 0.0, 0.0, 5.36, 7.6, -6.26, -6.94, -6.64, -7.37, -6.32, -4.22, -1.58, 0.0, 2.21, 3.6, 6.63, 9.75, 10.58, 10.08, 9.83, -0.0, -4.2, -6.01, -6.01, 8.49, 7.6, 7.6, 7.6, 7.6, 7.09, 7.09, 7.34, 7.78, 7.78, 7.78, 7.87, 7.87, 7.87, 8.23, 8.23, 8.22, 8.2, 8.2, 8.2, 8.2, 8.58, 8.58, 8.58, 8.85, 9.22, 9.5, 9.84, 9.84, 9.5, 9.17, 8.81, 8.46, 8.46, 8.49, 8.49, 8.2, 7.9, 8.21, 8.21, 7.91, 8.22, 8.22, 8.22, 8.21, 8.21, 8.21, 8.21, 7.91, 7.91, 8.24, 7.9, 7.61, 7.61, 7.27, 7.33, 7.33, 7.06, 7.06, 7.44, 6.79, 7.2, 7.2, 6.99, 6.7, 7.2, 6.52, 6.08, 6.08, 6.32, 5.37, 0.0, 0.0, 0.0, 0.0, 0.0, 0.0, 5.36, 7.6, -6.26, -6.94, -6.8, -7.37, -6.32, -4.22, -1.58, 0.0, 2.21, 3.17, 5.69, 8.0, 8.91, 9.7, 9.64, 9.83, 9.83, 9.39, 8.49, 8.49, 8.06, 8.33, 8.33, 8.33]}, {"header": {"dx": 0.06612293990616946, "dy": 0.0552356325346848, "nx": 98, "ny": 59, "la1": 35.046912555036876, "la2": 31.78801023549047, "lo1": -121.43107172385933, "lo2": -114.95102361305473, "refTime": "2026040813", "parameterCategory": 1, "parameterNumber": 3}, "data": [-12.59, -12.9, -12.72, -13.04, -12.86, -12.81, -12.99, -13.19, -13.43, -13.19, -12.98, -11.51, -11.84, -9.2, -6.95, -6.01, -6.01, -3.8, -2.66, -2.4, -0.0, 1.32, 2.64, 3.72, 4.19, 4.43, 3.76, 2.8, 1.98, 1.98, 6.0, 5.81, 5.36, 0.0, 0.0, 0.0, 0.0, 0.0, 0.0, 6.71, 6.4, 2.54, 0.0, -3.98, -5.6, -6.31, -7.82, -9.92, -10.17, -8.83, -2.93, 11.18, 7.27, 7.27, 8.18, 8.18, 7.9, 6.58, 5.98, 5.32, 4.8, 0.0, -9.83, 0.0, 4.0, 2.99, 2.4, 2.06, 2.7, 2.51, 2.71, 1.16, 0.0, 0.0, 0.0, 1.22, 1.52, 0.0, -0.0, 2.06, 2.02, 2.26, -0.0, -1.41, -1.8, -0.0, 0.0, 0.0, -2.8, -2.6, -4.68, -6.48, -7.9, -8.53, -8.24, -8.15, -6.98, -4.87, -12.21, -12.9, -12.9, -12.9, -13.04, -13.02, -13.59, -13.59, -13.19, -13.43, -12.25, -12.04, -11.62, -10.73, -8.93, -7.87, -5.72, -5.06, -4.37, -3.33, -3.35, -1.2, -0.0, 2.82, 4.19, 5.24, 4.74, 4.02, 1.32, -0.0, 1.63, 3.47, 4.11, 5.81, 5.51, 3.76, 2.26, 0.0, 0.0, 0.0, 0.0, -2.39, -5.0, -7.93, -10.12, -11.19, -12.42, -11.53, -10.71, -8.38, 11.18, 9.2, 7.27, 7.68, 8.18, 8.55, 7.9, 6.69, 5.98, 5.69, 4.6, 3.25, 3.11, 6.64, 6.32, 4.14, 3.8, 2.17, 2.97, 2.49, 3.42, 2.08, 0.0, -2.02, 0.0, 0.0, 0.93, 0.0, -0.0, 2.06, 2.02, 2.26, -0.0, -1.41, -1.8, -0.0, 0.0, 0.0, -2.8, -2.6, -4.68, -6.48, -7.9, -8.53, -8.24, -8.15, -6.98, -4.87, -12.21, -12.59, -12.9, -12.9, -12.72, -12.86, -13.41, -13.38, -13.38, -12.79, -11.39, -9.85, -11.46, -10.96, -9.54, -9.54, -7.68, -7.56, -6.95, -5.59, -4.42, -4.66, -3.14, -1.2, 1.32, 4.19, 4.74, 4.74, 1.32, -1.18, -1.25, -0.0, 1.32, 5.06, 6.07, 4.22, 2.26, 0.0, -1.2, -2.83, -6.3, -8.64, -10.86, -13.46, -15.09, -15.79, -15.04, -13.79, -9.48, 10.73, 9.64, 7.87, 7.68, 7.68, 8.15, 8.18, 7.56, 7.27, 5.45, 5.45, 4.18, 5.1, 5.46, 6.64, 6.32, 4.71, 4.66, 4.6, 5.21, 5.0, 4.64, 3.04, 0.0, -3.98, -4.14, -1.32, 0.0, 0.0, -4.38, -0.0, -0.0, -5.69, -5.37, -3.22, -1.49, -1.3, -0.0, 0.0, -2.6, -3.99, -6.15, -8.22, -9.08, -8.69, -9.17, -7.59, -4.58, -4.01, -12.01, -12.21, -12.77, -13.05, -12.9, -13.04, -13.25, -13.2, -13.19, -12.2, -10.8, -10.08, -11.46, -10.14, -10.08, -9.97, -10.28, -9.6, -8.24, -6.3, -4.46, -3.91, -4.44, -3.88, -2.57, -0.0, 2.26, 4.02, 3.72, -1.49, -4.46, -4.44, -3.35, -2.06, 0.0, 0.0, 0.0, -1.62, -4.6, -7.26, -10.22, -13.49, -15.12, -14.5, -13.49, -12.92, -11.6, -7.27, 6.64, 8.77, 7.28, 6.64, 7.33, 8.4, 8.15, 8.0, 7.56, 6.95, 5.45, 4.18, 4.18, 5.1, 6.3, 7.56, 6.79, 6.11, 5.9, 6.31, 7.26, 7.51, 6.57, 5.3, 2.89, -4.65, -8.0, -6.01, -4.4, -3.04, -15.2, -2.2, -3.8, -4.84, -4.29, -2.6, -1.7, -0.96, -0.0, -2.6, -4.19, -6.15, -6.94, -7.26, -8.35, -8.47, -6.01, -4.19, -2.8, -2.64, -12.01, -12.21, -12.77, -13.05, -13.05, -13.19, -13.25, -13.41, -13.02, -12.03, -10.63, -9.9, -10.6, -10.14, -10.18, -10.58, -10.18, -11.18, -9.3, -6.5, -5.7, -2.54, -2.54, -3.14, -2.57, -2.28, -1.67, -0.0, -0.0, -5.37, -7.28, -7.13, -8.03, -9.36, -9.83, -9.04, -8.55, -8.82, -10.18, -12.84, -14.13, -12.52, -10.25, -6.94, -4.9, -3.21, -1.14, 1.33, 5.59, 5.31, 5.59, 5.59, 6.98, 8.4, 8.15, 7.56, 6.95, 6.95, 6.17, 4.99, 3.25, 5.7, 7.56, 8.0, 7.06, 6.48, 5.9, 6.11, 7.59, 8.07, 7.26, 6.16, 6.34, 2.5, -10.01, -7.81, -6.45, -5.21, -3.82, -7.51, -2.73, -2.73, -2.6, -2.82, -2.29, -3.79, -5.36, -5.69, -7.72, -9.02, -7.82, -6.59, -7.06, -4.89, -4.43, -1.52, -1.72, -2.17, -12.01, -12.21, -12.38, -13.05, -13.19, -13.05, -13.43, -12.86, -12.86, -12.23, -10.8, -9.34, -10.18, -9.75, -10.18, -10.62, -10.32, -11.46, -11.51, -9.16, -8.02, -6.7, -5.69, -4.2, -4.44, -5.46, -6.01, -7.67, -8.77, -9.39, -8.49, -8.77, -8.67, -11.4, -12.96, -12.43, -11.4, -11.5, -12.84, -13.76, -13.59, -11.6, -6.98, 0.0, 0.0, 0.0, 0.0, 0.97, 2.58, 2.97, 4.2, 4.6, 6.98, 8.4, 7.81, 6.95, 6.3, 6.3, 5.21, 3.67, 3.11, 6.14, 7.56, 7.13, 5.36, 5.46, 5.9, 5.72, 5.44, 4.99, 3.96, 4.08, 6.6, 7.0, 4.3, -9.8, -8.48, -5.01, 0.0, -5.63, -3.72, -4.43, -4.43, -4.95, -5.49, -7.81, -7.89, -10.2, -11.07, -9.97, -7.9, -8.32, -6.64, -3.0, -3.0, -3.45, -2.67, -3.65, -12.01, -12.21, -12.21, -12.77, -13.19, -13.19, -12.9, -13.04, -12.47, -12.23, -10.94, -9.18, -9.55, -8.23, -8.22, -9.6, -10.75, -11.09, -11.95, -11.72, -10.48, -11.34, -11.25, -11.28, -12.17, -11.38, -12.38, -12.58, -10.28, -8.37, -9.54, -8.94, -8.72, -8.43, -11.15, -12.5, -12.87, -12.21, -9.69, -10.94, -13.01, -12.07, -12.04, -9.17, -6.6, -4.36, -2.45, -0.82, 0.0, 0.0, 0.0, 4.83, 7.33, 7.81, 7.33, 6.64, 5.21, 5.46, 3.45, 2.83, 3.45, 5.86, 5.86, 5.59, 5.03, 4.44, 3.99, 2.46, 1.07, 0.0, 0.0, 0.0, 1.09, 2.35, 2.5, 0.0, -9.8, 0.0, 0.0, -8.8, -6.99, -7.47, -8.4, -8.14, -10.02, -11.18, -11.84, -12.63, -12.39, -11.38, -10.43, -10.55, -3.72, -0.0, -6.79, -4.74, -4.71, -4.2, -11.63, -12.01, -12.21, -12.38, -13.19, -13.19, -13.05, -12.9, -12.64, -11.69, -10.13, -9.18, -9.55, -8.94, -5.4, -5.52, -8.22, -9.62, -10.01, -10.79, -12.3, -12.42, -9.96, -14.18, -14.05, -14.1, -14.61, -14.6, -11.5, -8.94, -8.82, -10.96, -11.02, -9.6, -10.01, -11.98, -12.5, -10.93, -9.46, -8.73, -10.68, -10.96, -15.05, -15.9, -13.8, -10.62, -5.86, -3.36, -0.89, -1.33, -1.54, 4.83, 8.18, 8.18, 7.56, 6.3, 5.72, 4.88, 3.11, 2.13, 2.58, 4.2, 6.64, 6.7, 6.8, 4.14, 2.28, 0.0, -1.14, -2.09, -1.94, -1.14, -2.0, -2.93, -3.25, -1.25, 0.0, 6.21, 2.06, -2.02, -13.58, -12.03, -9.74, -10.71, -12.07, -12.88, -12.33, -12.63, -12.18, -10.55, -10.91, -4.19, -0.0, -2.66, -7.15, -5.15, -5.49, -4.71, -11.63, -12.01, -12.21, -12.38, -12.77, -13.19, -13.19, -12.9, -12.5, -11.46, -10.65, -11.03, -12.83, -12.66, -10.87, -7.82, -8.1, -9.17, -8.44, -6.94, -4.65, -4.81, -7.19, -10.8, -11.98, -10.6, -9.13, -9.53, -10.97, -10.04, -11.64, -13.37, -13.86, -13.37, -11.27, -10.08, -10.91, -10.68, -8.91, -8.99, -10.7, -12.08, -12.3, -12.27, -11.53, -11.02, -11.13, -8.58, -5.9, -4.78, 0.0, 7.51, 7.81, 7.56, 6.64, 6.11, 4.98, 4.18, 3.25, 2.04, 1.33, 2.83, 5.69, 5.36, 8.05, 3.8, 1.16, 0.0, -1.4, -2.99, -2.54, -2.47, -3.42, -3.82, -3.29, -1.39, 0.0, 1.45, 0.0, 0.0, -6.52, -14.22, -9.83, -8.49, -9.81, -10.18, -10.41, -11.09, -10.73, -7.87, -2.29, -0.67, -2.11, -5.24, -6.61, -4.74, -5.49, -4.83, -11.63, -11.63, -12.01, -12.21, -12.77, -13.05, -13.19, -13.05, -12.5, -11.6, -11.33, -11.88, -11.3, -13.12, -13.7, -12.6, -12.79, -13.43, -13.19, -12.33, -11.6, -11.12, -9.8, -8.38, -8.55, -6.64, -6.01, -7.59, -11.17, -12.21, -14.3, -16.54, -15.65, -13.86, -11.18, -10.18, -7.44, -6.44, -6.9, -7.67, -10.62, -11.02, -5.69, 0.0, 3.0, -5.06, -7.06, -7.98, -8.22, -8.0, 0.0, 7.44, 7.33, 6.01, 6.11, 5.9, 5.21, 4.15, 3.21, 2.02, 1.09, 0.0, 7.2, 6.52, 8.49, 5.1, 2.58, 1.84, 0.0, -1.67, -2.69, -3.39, -3.82, -2.99, -1.76, -0.98, -2.33, -2.17, -2.94, -1.83, -2.45, -8.21, -11.99, -6.8, -6.0, -5.59, -5.03, -3.15, 0.0, 3.22, -0.0, -2.2, -4.84, -6.02, -6.64, -5.46, -6.01, -5.37, -11.63, -11.63, -12.01, -12.59, -12.59, -12.77, -13.05, -13.05, -12.5, -11.72, -11.6, -12.25, -12.08, -12.81, -13.88, -13.99, -15.04, -14.77, -14.68, -16.12, -16.99, -17.2, -16.22, -13.15, -10.04, -8.4, -8.82, -8.82, -10.55, -13.37, -12.96, -12.86, -12.07, -10.75, -10.89, -11.62, -10.0, -7.33, -5.58, 0.0, -0.0, 5.21, 6.61, 7.6, 7.6, 5.59, 3.4, -0.0, -0.0, -0.0, -0.0, 6.32, 5.36, 4.96, 5.46, 5.45, 5.2, 3.18, 1.09, 0.0, 0.0, 0.0, 8.05, 7.15, 8.49, 5.31, 4.4, 3.81, 1.14, -2.54, -4.2, -4.5, -4.06, -3.42, -1.84, -1.84, -3.65, -5.46, -5.46, -5.25, -4.52, -5.81, -9.49, -8.1, -2.83, 0.0, 0.0, 0.79, 0.78, 0.81, 0.0, -3.83, -4.52, -5.77, -6.65, -6.07, -6.44, -5.82, -11.63, -11.32, -11.69, -12.27, -12.59, -12.59, -12.77, -13.05, -12.66, -11.87, -11.72, -12.11, -12.39, -11.79, -11.03, -11.02, -11.2, -13.35, -14.71, -14.97, -13.97, -12.6, -11.56, -11.62, -6.8, -6.26, -6.14, -2.53, -0.0, -6.58, -8.33, -0.0, 5.81, 5.6, -10.73, -10.28, -10.28, -7.21, -0.0, 4.46, 4.56, 5.37, 6.36, 3.4, 3.4, 4.74, 2.82, 2.82, 1.32, -1.67, -6.08, -8.05, 0.0, 3.6, 4.14, 2.33, 2.23, 2.16, 0.0, -1.02, -0.89, 0.0, 8.94, 6.32, 8.49, 6.32, 6.24, 5.2, 2.6, -1.45, -4.18, -4.13, -4.13, -3.25, -2.23, -2.82, -3.82, -6.17, -6.79, -7.63, -6.53, -5.4, -5.6, -7.59, -1.76, 0.0, 0.0, 0.0, 0.0, 0.0, -0.96, -4.4, -4.47, -5.36, -6.07, -5.46, -5.82, -6.21, -11.63, -11.32, -11.69, -12.27, -12.27, -12.59, -12.77, -12.38, -12.38, -11.99, -11.99, -12.38, -12.59, -12.42, -11.88, -11.2, -10.12, -9.62, -10.79, -11.5, -10.29, -7.64, -6.01, -4.75, -3.78, -4.09, -4.77, 4.8, 5.21, 2.49, -0.0, 3.49, 4.11, 5.2, 5.81, 0.0, -0.0, 2.4, -0.0, -0.0, -1.49, -4.02, -6.07, -3.49, -2.8, -5.81, -4.43, -3.68, -3.91, -5.37, -5.82, -6.88, -7.15, -7.15, -8.0, -4.83, -2.54, 0.0, 0.0, 0.0, -1.67, 0.0, -0.0, -0.0, -0.0, 5.37, 4.47, 6.58, 7.9, 6.97, 0.0, -1.62, -1.26, -1.14, -2.04, -3.29, -3.68, -5.52, -7.08, -6.44, -5.21, -4.94, -6.2, -10.18, -4.65, -1.77, -2.33, -2.97, -1.22, 0.0, -0.89, -1.7, -2.41, -4.22, -5.58, -4.81, -5.75, -6.23, -11.63, -11.32, -11.32, -11.9, -12.27, -12.38, -12.53, -12.53, -12.53, -12.53, -12.53, -12.38, -12.59, -12.65, -12.49, -11.79, -10.4, -10.27, -9.8, -9.84, -9.5, -8.19, -7.73, -6.67, -7.36, -7.27, -7.15, 3.47, 2.88, 2.54, 1.8, 0.96, 2.12, 2.6, 4.43, 5.6, 2.8, -0.0, -0.0, -2.26, -5.06, -6.16, -8.94, -9.33, -7.4, -6.71, -7.4, -8.54, -8.22, -9.04, -9.46, -10.65, -13.41, -13.86, -12.52, -11.44, -8.91, -2.99, 0.0, 0.0, -2.69, -2.83, -4.0, -3.8, -5.06, -6.4, 0.0, 6.07, 9.83, 7.94, 10.28, 10.73, 7.59, 0.0, -2.7, -3.82, -3.98, -4.34, -5.49, -4.83, -4.58, -6.01, -7.36, -9.48, -9.62, -7.79, -6.3, -4.05, -1.07, 0.0, 0.0, -0.67, -1.7, -1.99, -3.22, -2.76, -4.43, -6.26, -11.63, -11.32, -11.32, -11.9, -11.9, -12.09, -12.53, -12.53, -12.53, -12.53, -12.53, -12.47, -12.47, -12.65, -12.78, -12.45, -11.7, -10.95, -10.18, -10.04, -10.12, -9.48, -8.73, -8.45, -8.05, -8.21, -8.93, -0.0, 1.84, 1.19, 1.16, 1.07, -0.0, -0.0, -0.0, -0.0, -0.0, -0.0, -0.0, -3.2, -6.4, -7.52, -10.73, -10.68, -5.81, -6.71, -4.74, -5.94, -6.23, -7.81, -9.16, -9.83, -9.6, -8.05, -6.71, -7.6, -6.71, -8.17, -4.83, 0.0, -2.99, -3.6, -5.37, -6.52, -6.52, -6.52, -6.4, 0.0, 6.26, 7.15, 7.08, 10.14, 11.28, 0.0, -4.6, -4.2, -3.17, -3.99, -3.77, -3.91, -4.29, -4.47, -4.56, -4.8, -6.42, -10.61, -8.59, -3.53, 0.0, 0.0, 0.0, -0.79, -1.6, -1.7, -1.03, -1.3, -4.11, -4.11, -11.63, -11.32, -11.32, -11.9, -11.9, -12.09, -12.53, -12.53, -12.53, -12.53, -12.65, -12.65, -12.47, -12.85, -12.68, -12.42, -12.07, -11.01, -10.68, -10.68, -10.37, -9.42, -8.74, -8.46, -7.93, -7.49, -8.32, -11.03, -0.0, 1.49, 1.72, 2.29, 2.4, -0.0, -0.0, -0.0, 5.37, 6.8, 5.69, -3.4, -6.07, -5.81, -6.58, -6.71, 0.0, 6.4, 6.4, 6.71, 0.0, -6.26, -6.26, -6.61, -6.36, 0.0, 6.26, -6.26, -6.58, -6.4, -6.8, -8.49, -5.37, -0.0, -6.0, -6.0, -6.23, -6.64, -5.95, 0.0, 7.6, 6.51, 6.52, 9.13, 12.52, 0.0, -9.39, -5.69, -2.69, -2.83, 0.0, 0.0, 0.0, -1.84, -1.49, -1.0, -1.14, 0.0, -5.7, 0.0, 2.06, 0.0, -1.2, -2.47, -1.7, -1.6, -1.95, -1.98, -2.95, -2.95, -11.63, -11.32, -11.69, -11.32, -11.53, -12.09, -12.53, -13.07, -12.27, -12.27, -12.65, -12.65, -12.85, -12.54, -12.68, -12.35, -11.73, -11.06, -10.7, -10.3, -10.01, -9.09, -8.81, -8.31, -7.58, -6.6, -7.32, -7.58, -7.44, 0.0, 7.27, 6.44, 5.24, 5.69, 4.43, 4.74, 6.36, 7.15, 6.26, -5.81, -5.36, -5.36, -7.15, -6.26, 0.0, 7.6, 6.8, 7.15, 7.15, 5.06, 0.0, 0.0, 7.15, 7.15, 7.15, 0.0, -3.4, 0.0, 0.0, 0.0, 0.0, 5.69, 5.06, 0.0, 0.0, 0.0, 0.0, -7.15, 0.0, 5.6, 2.69, -0.0, -11.6, -11.28, -7.63, -0.0, 6.64, 6.95, 6.95, 6.32, 8.49, 0.0, -1.32, -1.0, -2.06, -1.1, 1.19, 1.08, 0.0, -2.21, -3.06, -3.17, -3.47, -3.33, -3.8, -3.2, -3.07, -3.07, -11.63, -11.32, -11.69, -11.69, -11.53, -11.53, -12.27, -12.42, -12.81, -12.65, -12.65, -13.03, -13.03, -12.54, -12.54, -12.0, -11.39, -11.06, -10.42, -9.46, -8.81, -8.81, -8.74, -7.6, -5.9, -4.81, -5.36, -5.26, -4.81, -3.1, 0.0, 11.18, 8.3, 5.81, 4.8, 5.95, 4.74, 0.0, 0.0, -4.11, -6.26, -7.15, -6.71, -7.15, 0.0, 5.69, -0.0, 0.0, 7.6, 7.6, 7.6, 7.6, 7.6, 0.0, 0.0, 0.0, 0.0, 0.0, 0.0, 0.0, 0.0, 5.69, 5.37, 6.71, 6.26, 5.51, 0.0, -6.4, -9.83, -7.9, -6.7, -8.22, -9.2, -7.67, -3.49, 1.84, 6.64, 6.95, 8.4, 6.01, 5.06, 0.0, -1.73, -3.7, -3.6, -3.91, -4.46, 0.0, -1.98, -4.68, -4.2, -3.17, -3.72, -4.42, -4.03, -3.72, -3.48, -3.48, -11.63, -11.32, -11.32, -11.36, -11.53, -11.53, -12.27, -12.42, -12.81, -12.81, -12.65, -13.03, -13.42, -13.12, -12.54, -13.46, -11.33, -11.36, -9.5, -7.59, -7.64, -8.84, -9.3, -8.38, -7.43, -5.99, -5.15, -5.48, -5.81, -5.16, -5.11, 8.53, 10.73, 8.77, 6.0, 5.01, 4.43, -0.0, 0.0, -6.71, -5.36, -5.81, 0.0, 0.0, 5.37, 5.69, -0.0, -0.0, 0.0, 7.6, 7.6, 7.6, 7.6, 7.6, 0.0, 0.0, 0.0, 0.0, 0.0, 0.0, 0.0, 0.0, 7.6, 6.26, 5.64, 4.84, 0.0, -4.74, -6.32, -7.59, -7.27, -7.9, -10.04, -12.07, -3.68, -0.0, 0.0, 0.0, 0.0, 0.0, -0.0, 0.0, -5.21, -6.14, -6.95, -7.15, -7.68, -7.9, -7.13, -7.4, -5.69, -4.46, -4.42, -5.69, -5.06, -3.47, -4.11, -4.11, -11.63, -11.32, -11.32, -11.01, -11.32, -11.53, -12.09, -12.27, -12.81, -12.81, -12.65, -13.03, -13.12, -13.12, -13.12, -12.32, -11.88, -11.88, -10.65, -9.02, -9.35, -9.55, -10.23, -11.63, -10.96, -10.47, -8.97, -9.27, -8.65, -7.89, -5.2, 7.59, 10.28, 8.67, 6.7, 4.74, 3.22, 4.11, -0.0, 0.0, -0.0, 0.0, 4.47, 4.24, 4.09, 5.37, 5.37, -0.0, -0.0, 7.6, 7.6, 7.6, 7.6, 7.6, 6.0, 5.06, 0.0, 0.0, -3.6, 0.0, 0.0, 7.6, 7.15, 6.4, 4.84, 2.6, -0.0, -3.0, 0.0, 1.2, 1.39, 2.24, 1.13, -1.44, -6.8, -8.53, -7.9, -7.59, -8.49, -0.0, -0.0, 0.0, 0.0, -2.69, -5.1, -5.06, -4.74, -4.19, -7.36, -6.98, -7.2, -6.79, -6.95, -6.44, -6.64, -6.08, -5.43, -5.43, -11.32, -11.32, -11.32, -11.01, -11.32, -11.53, -11.53, -12.27, -12.81, -13.2, -12.54, -12.74, -13.12, -13.12, -13.12, -12.6, -11.58, -11.88, -10.79, -12.13, -12.01, -10.99, -11.34, -11.38, -12.42, -11.59, -10.18, -10.27, -10.12, -8.53, -7.59, 0.0, 8.49, 8.49, 5.37, 3.72, 3.22, 3.22, 4.43, 6.0, 6.0, 6.26, 6.26, 5.94, 4.46, 5.37, -0.0, -0.0, 5.37, 5.06, 5.06, 5.06, 7.6, 7.6, 7.6, 2.26, 1.95, 1.95, 0.0, -5.69, 0.0, 7.6, 6.4, 3.2, 2.6, 1.84, -0.0, 0.0, 5.06, 6.63, 8.22, 6.98, 4.15, 0.0, -7.6, -11.09, -11.75, -12.46, -9.97, -1.84, -0.0, -0.0, 8.05, 6.79, 6.0, 0.0, 0.0, 0.0, 0.0, -1.98, -5.69, -7.76, -7.74, -6.44, -7.06, -7.2, -6.64, -6.64, -11.32, -11.32, -11.32, -11.01, -11.32, -11.53, -11.53, -12.27, -12.81, -12.92, -12.92, -12.92, -12.92, -13.12, -12.91, -12.6, -11.93, -11.58, -12.09, -13.55, -13.05, -12.04, -11.74, -11.74, -11.31, -10.51, -9.39, -9.11, -8.67, -8.94, 0.0, 0.0, 0.0, 6.71, 5.06, 4.74, 2.8, 1.55, 2.6, 2.8, 5.6, 6.26, 6.26, 5.6, 4.11, 2.98, 5.69, 5.37, 5.06, 4.74, 5.06, 5.37, 5.06, 7.15, 7.15, 5.37, 6.32, 7.07, 0.0, -8.05, -7.15, 7.15, 6.79, 4.74, 2.8, 4.11, 2.6, 2.8, 6.26, 7.81, 7.67, 7.59, 7.69, 9.66, -8.67, -13.15, -14.79, -15.27, -13.23, -2.02, -0.0, 2.12, 3.72, 4.43, 4.74, 1.41, -0.0, -6.26, -4.87, -2.7, -6.2, -7.27, -7.27, -5.59, -4.15, -4.93, -5.34, -5.34, -11.32, -11.32, -11.32, -11.01, -11.01, -11.53, -11.9, -12.27, -12.81, -12.92, -12.92, -12.92, -13.3, -13.12, -12.6, -12.28, -11.93, -11.58, -11.93, -12.65, -12.7, -11.39, -11.09, -11.44, -11.41, -11.03, -9.95, -8.85, -7.93, -5.9, -5.69, 0.0, 0.0, 0.0, 0.0, 4.11, 2.4, 2.2, 2.2, 2.6, 5.6, 5.6, 5.94, 5.94, 4.46, 2.95, 5.06, 4.74, 4.43, 5.06, 5.37, 5.37, 5.37, 7.15, 7.15, 7.15, 6.71, 7.15, 8.05, -6.71, -7.15, 7.6, 7.6, 7.15, 6.0, 5.51, 5.36, 6.71, 0.0, 0.0, 0.0, 0.0, 13.86, 8.49, -5.36, -9.64, -13.44, -15.41, -15.43, -0.0, -0.0, -0.0, 2.12, -0.0, -0.0, -2.12, -6.0, -7.15, -8.37, -7.78, -7.63, -7.52, -7.27, 0.0, 0.0, -3.58, -4.27, -4.27, -11.32, -11.32, -11.32, -11.01, -11.01, -11.32, -11.53, -12.27, -12.81, -12.92, -12.92, -13.3, -13.3, -13.12, -12.82, -12.28, -11.97, -11.28, -11.97, -12.31, -12.02, -11.06, -10.43, -10.13, -11.1, -11.07, -10.35, -9.71, -8.3, -7.85, -4.8, -2.83, -2.54, -3.2, 0.0, 0.0, -0.0, 2.6, 2.4, 2.4, 4.11, 5.6, 6.0, 5.21, 4.11, 2.53, 3.0, 4.74, 5.06, 5.37, 5.69, 5.37, 5.37, 5.06, 7.15, 7.15, 5.2, 6.0, 0.0, 0.0, 0.0, 0.0, 0.0, 6.71, 4.66, 5.81, 8.05, 8.94, 0.0, 0.0, -6.71, -9.39, 0.0, 5.81, -5.81, -4.92, -8.77, -11.62, -11.9, -10.12, -0.0, -0.0, -0.0, -4.46, -5.37, -6.64, -7.15, -8.87, -8.4, -5.43, -6.24, -5.95, -4.46, 2.0, 0.0, -3.07, -4.46, -4.46, -11.32, -11.32, -11.32, -11.01, -11.01, -11.01, -11.53, -12.09, -12.81, -12.92, -12.92, -12.65, -13.02, -12.82, -12.82, -12.52, -11.97, -11.63, -11.36, -12.03, -11.7, -11.05, -10.42, -10.43, -10.78, -10.44, -10.43, -10.43, -9.4, -9.48, -7.28, -5.0, -5.06, -4.0, -4.71, -5.69, 0.0, -0.0, -0.0, 4.43, 4.74, 6.0, 6.4, 4.74, 3.47, 2.6, 2.16, 3.49, 4.43, 4.43, 4.11, 5.37, 5.06, 5.06, 5.37, 5.06, 4.74, 2.6, -0.0, -6.71, 0.0, 0.0, -0.0, 4.0, 5.51, 8.05, 8.94, 8.49, 7.6, -6.71, -6.8, -6.52, -5.95, 0.0, 0.0, 0.0, -3.22, -2.95, -4.96, -2.93, 0.0, -0.0, -2.71, -7.27, -6.9, -7.21, -7.97, -8.05, -6.94, -5.75, -5.6, -5.69, -2.12, -0.96, -1.41, -2.4, -3.22, -3.22, -11.32, -11.32, -11.32, -11.01, -11.01, -11.01, -11.01, -12.09, -12.54, -12.54, -12.92, -12.65, -13.02, -12.82, -12.82, -12.52, -11.97, -11.97, -11.69, -11.69, -11.37, -11.37, -10.72, -10.7, -11.06, -10.43, -10.12, -10.12, -9.85, -9.17, -8.85, -7.24, -5.54, -4.6, -5.9, -4.96, -6.01, 0.0, 0.0, -0.0, 5.37, 5.37, 5.37, 3.4, 2.26, 3.0, 3.0, 3.76, 4.43, 4.54, 4.19, 3.84, 6.0, 6.4, 5.37, 5.37, 6.0, 4.43, 0.0, -7.15, -5.06, 0.0, 4.92, 4.02, 6.71, 8.94, 8.94, 8.05, -0.0, -6.71, -6.4, -7.15, -4.46, -3.19, 0.0, 1.77, 3.82, -1.32, -2.16, -4.0, -12.96, -0.0, -3.25, -4.8, -4.43, -6.13, -7.06, -7.6, -7.15, -6.17, -5.58, -3.2, -3.15, -3.2, -2.29, -2.29, -2.47, -2.47, -11.32, -11.32, -11.32, -11.01, -11.01, -11.01, -11.23, -11.53, -12.16, -12.54, -12.92, -12.65, -13.02, -12.65, -12.82, -12.52, -12.28, -11.97, -11.97, -11.69, -11.37, -11.06, -11.06, -10.72, -10.35, -10.01, -9.76, -9.8, -9.56, -8.85, -8.53, -7.26, -6.41, -6.2, -6.24, -5.7, -5.06, -5.9, -6.64, -6.32, 0.0, -0.0, -0.0, -0.0, -0.0, 1.84, 3.4, 4.29, 4.74, 4.89, 4.54, 3.84, 3.49, 3.43, 4.43, 4.74, 3.2, 4.74, -0.0, 0.0, -8.05, 0.0, 5.37, 5.51, 8.94, 8.49, 7.6, -0.0, -0.0, -7.15, -6.94, -6.32, -6.18, -4.44, -1.33, 3.07, 6.0, 2.6, -4.43, -6.0, -10.73, -4.52, -0.0, -0.0, -4.29, -6.0, -6.79, -6.79, -6.13, -5.06, -4.19, -6.26, -5.03, -5.44, -3.9, -2.88, -2.88, -2.88, -11.32, -11.32, -11.32, -11.01, -11.01, -11.01, -11.23, -11.53, -12.09, -12.16, -12.27, -12.65, -12.65, -12.37, -12.16, -11.93, -12.28, -11.97, -11.97, -11.69, -11.37, -11.06, -11.06, -10.72, -10.72, -10.06, -9.71, -9.8, -9.48, -9.3, -8.07, -7.78, -6.98, -6.15, -5.95, -5.45, -5.1, -4.4, -5.63, -6.64, -8.94, 0.0, -0.0, -0.0, -0.0, 3.6, 4.71, 4.56, 5.06, 4.74, 4.11, 4.19, 3.84, 3.78, 3.15, 3.49, 3.0, 4.74, 4.43, -0.0, -0.0, 0.0, 3.2, 5.06, 7.6, 9.83, 0.0, -7.6, -5.37, -7.6, -7.21, -5.69, -6.52, -7.07, -5.93, -1.84, 0.0, 9.83, 0.0, 0.0, -8.05, -13.41, 6.8, -0.0, -5.36, -5.84, -4.81, -4.58, -4.47, -4.47, -4.29, -6.4, -6.13, -6.18, -6.11, -4.36, -3.64, -3.64, -11.32, -11.32, -11.32, -11.01, -11.01, -11.01, -11.23, -11.9, -12.09, -11.99, -12.27, -12.65, -12.73, -12.73, -12.73, -12.16, -11.93, -11.63, -11.63, -11.36, -11.37, -11.06, -11.06, -10.72, -10.42, -9.8, -9.46, -9.43, -9.48, -9.17, -8.37, -7.54, -7.26, -6.41, -5.95, -5.7, -5.45, -4.88, -6.14, -5.9, -6.64, -8.94, -0.0, -0.0, -0.0, 5.37, 6.01, 4.46, 4.56, 4.74, 4.11, 3.79, 3.48, 3.84, 3.48, 2.48, 4.43, 3.0, 1.98, 2.12, -0.0, -0.0, 0.0, 0.0, 8.94, 8.49, 8.94, 0.0, -0.0, -5.37, -8.05, -4.14, -3.8, -6.52, -10.05, -11.06, -9.2, -2.26, 0.0, 0.0, -4.11, -10.04, -14.75, -0.0, -2.28, -2.98, -3.12, -3.47, -4.43, -4.43, -4.43, -5.21, -6.71, -6.6, -6.18, -6.11, -5.06, -5.06, -11.32, -11.32, -11.32, -11.01, -11.01, -11.01, -11.23, -11.9, -11.9, -11.99, -12.16, -12.65, -12.37, -12.73, -12.8, -12.22, -11.63, -11.63, -11.63, -11.63, -11.37, -11.37, -11.37, -11.06, -10.39, -9.8, -9.46, -9.46, -9.48, -8.72, -8.67, -7.82, -6.92, -6.67, -6.41, -5.95, -5.7, -6.17, -5.98, -6.14, -6.95, -8.4, -8.94, -5.69, -3.2, -0.0, 6.01, 5.06, 3.79, 3.48, 3.48, 2.95, 3.48, 3.48, 3.07, 3.48, 2.86, 2.48, 2.8, 2.32, 1.32, -0.0, -7.15, -5.69, 5.69, 7.2, 7.2, -0.0, -0.0, -5.37, -8.05, -5.37, -2.33, -3.08, -8.32, -11.75, -12.07, -3.15, -0.0, 0.0, -2.4, -7.87, -12.58, -6.4, -2.54, -1.32, -1.3, -2.98, -3.93, -5.36, -5.37, -5.69, -7.89, -7.52, -7.95, -7.2, -6.44, -6.44, -10.96, -10.96, -11.32, -11.01, -11.01, -11.01, -11.23, -11.9, -11.6, -12.17, -12.37, -11.9, -12.37, -12.37, -12.45, -12.45, -11.97, -11.69, -11.97, -11.66, -11.66, -11.66, -11.37, -11.06, -10.74, -10.1, -9.46, -9.46, -8.66, -8.59, -8.49, -7.89, -6.72, -6.48, -6.24, -6.41, -6.15, -6.31, -6.17, -7.27, -6.95, -7.87, -8.4, -8.49, -3.4, -3.6, -0.0, -0.0, 2.23, 1.98, 2.53, 2.84, 2.68, 2.95, 3.48, 3.07, 2.73, 3.12, 2.4, 0.96, -0.0, -2.4, -5.69, -3.6, -0.0, 5.37, -0.0, -5.37, -5.06, -5.06, -5.81, -5.94, -3.68, 0.0, -2.04, -7.66, -9.44, -10.73, -4.2, -8.05, -8.8, -7.44, -10.0, -12.72, -11.99, -0.0, 2.49, 1.98, -0.0, -2.0, -3.48, -3.48, -5.37, -7.52, -8.67, -8.48, -7.2, -7.2, -10.96, -10.96, -10.96, -11.01, -11.01, -11.01, -11.23, -11.6, -11.6, -11.96, -12.17, -12.09, -12.27, -12.73, -12.45, -12.22, -12.22, -12.31, -12.31, -11.99, -11.99, -11.99, -11.37, -11.37, -11.06, -10.44, -9.46, -9.48, -8.32, -8.01, -8.18, -8.05, -7.19, -6.7, -5.86, -6.0, -6.41, -6.59, -6.31, -7.27, -6.95, -7.68, -7.51, -8.0, -8.94, -4.2, -2.97, -0.0, 1.98, 3.22, 2.98, 2.73, 3.48, 3.48, 2.95, 2.68, 3.07, 2.98, 1.88, 0.64, -0.0, -3.4, -2.54, -0.0, 5.69, 7.6, 7.15, -7.6, -7.21, -4.56, -5.75, -7.15, -8.67, -3.11, 0.0, -3.42, -7.58, -6.97, -6.32, -8.8, -6.64, -5.46, -2.49, -4.32, -5.8, -13.41, -0.0, 5.0, 3.47, 2.6, -0.0, -3.79, -4.22, -4.73, -8.49, -8.73, -7.71, -7.71, -10.96, -10.96, -10.96, -11.01, -11.01, -11.01, -11.01, -11.36, -11.6, -11.96, -11.96, -11.88, -11.88, -12.09, -12.22, -12.22, -12.22, -11.97, -11.69, -12.31, -11.99, -11.7, -11.7, -11.37, -10.44, -10.13, -9.8, -9.48, -9.17, -8.61, -7.8, -7.8, -7.36, -6.87, -6.62, -6.2, -6.57, -6.7, -7.13, -7.27, -7.27, -7.56, -7.68, -6.64, -8.4, -9.39, -0.0, -0.0, 3.6, 3.2, 3.97, 3.72, 3.47, 3.22, 2.98, 2.48, 2.48, 2.3, 1.35, 0.61, -0.67, -2.26, -0.0, 3.4, 7.21, 7.21, 7.15, 0.0, -7.2, -6.01, -6.01, -8.94, -8.49, -7.81, -5.08, -2.72, -2.7, -4.46, 0.0, 0.0, 0.0, 0.0, 0.0, 0.0, -2.45, -3.56, -9.17, 2.93, 4.0, 5.06, 5.06, -0.0, -3.48, -3.6, -6.65, -8.43, -8.0, -8.0, -11.26, -11.26, -10.96, -10.96, -11.01, -11.01, -11.23, -11.6, -11.6, -11.96, -11.96, -12.0, -11.64, -11.33, -11.63, -11.66, -11.37, -11.37, -11.69, -12.31, -11.99, -12.02, -11.7, -11.38, -10.75, -10.43, -10.12, -10.11, -10.46, -9.48, -8.49, -7.85, -7.51, -7.09, -7.09, -6.36, -6.71, -6.79, -7.59, -7.68, -7.74, -7.87, -7.56, -7.68, -7.81, -9.83, -9.83, -0.0, -0.0, 3.8, 3.4, 4.74, 4.74, 4.11, 2.98, 2.73, 2.48, 2.23, 1.49, 0.79, -0.0, -0.0, -0.0, 5.37, 5.06, 5.06, 5.06, 3.0, -0.0, -6.01, -5.69, -6.64, -9.39, -8.15, -9.21, -5.99, -1.71, 2.19, 5.0, 4.4, 1.23, 0.0, 0.0, -1.44, -1.44, -3.04, -4.71, -11.99, 3.53, 5.36, 4.65, 4.43, -0.0, -3.07, -5.59, -8.05, -8.05, -8.05, -11.44, -11.44, -11.16, -11.16, -11.44, -11.44, -11.23, -11.52, -11.88, -11.88, -12.24, -12.24, -11.93, -11.33, -11.28, -10.75, -10.75, -10.75, -10.75, -11.37, -11.7, -11.7, -11.7, -11.38, -11.06, -10.75, -10.43, -10.11, -10.13, -9.48, -8.79, -8.53, -7.8, -7.51, -7.18, -7.22, -6.81, -7.22, -7.18, -7.68, -8.12, -7.87, -7.47, -7.56, -6.95, -8.18, -9.83, -9.39, -0.0, -0.0, 6.01, 5.69, 5.37, 5.06, 4.43, 4.11, 3.48, 3.16, 3.16, 3.16, 1.41, -0.0, 3.4, 5.37, -0.0, -0.0, -0.0, -0.0, -0.0, -2.4, -4.22, -8.0, -6.64, -7.27, -8.66, -4.98, 0.0, 5.27, 6.9, 4.81, 1.09, 0.0, -2.93, -3.04, -3.04, -3.12, -5.04, -4.81, -7.59, 3.0, 4.43, 4.29, 3.79, -1.8, -4.66, -7.37, -8.49, -8.49, -11.61, -11.61, -11.34, -11.34, -11.72, -11.62, -11.99, -11.99, -12.09, -12.09, -12.45, -12.45, -12.16, -11.8, -11.28, -11.33, -10.75, -10.75, -11.05, -11.37, -11.37, -11.7, -11.7, -11.38, -11.06, -10.75, -10.43, -10.43, -9.8, -9.5, -9.17, -8.49, -8.19, -7.56, -7.56, -7.22, -7.22, -6.87, -7.59, -7.64, -8.12, -7.76, -7.51, -7.47, -6.95, -7.27, -8.55, -8.8, -9.39, 0.0, 0.0, 6.01, 5.69, 6.8, 6.4, 4.74, 4.11, 2.4, 2.0, 4.0, 4.4, 2.73, 3.6, 2.26, -0.0, 0.0, -0.0, 5.69, -0.0, -0.0, -3.8, -6.8, -5.46, -1.22, -2.06, -2.37, 0.0, 3.41, 3.58, 1.11, 0.0, -1.28, -2.95, -2.95, -2.95, -1.58, -1.58, -2.58, -1.05, 0.0, 5.6, 5.01, 4.8, 1.8, -2.53, -5.51, -8.44, -8.44, -10.96, -10.96, -11.34, -11.34, -11.62, -11.62, -11.99, -11.99, -12.09, -12.09, -12.45, -12.45, -12.16, -12.16, -11.52, -11.28, -11.03, -11.03, -10.75, -11.36, -11.06, -11.06, -11.38, -11.7, -11.06, -10.75, -10.43, -10.77, -10.13, -9.8, -9.5, -8.85, -7.85, -7.85, -7.56, -7.56, -7.58, -7.22, -7.59, -7.97, -8.12, -7.76, -7.06, -6.32, -5.82, -6.3, -6.42, -7.27, -6.95, 0.0, 0.0, 8.49, 8.05, 5.37, 5.37, 5.06, 4.43, 4.11, 3.16, 4.4, 4.4, 4.4, -0.0, -0.0, -0.0, 0.0, 5.06, 6.8, 5.69, -0.0, -0.0, -0.0, 0.0, 1.76, 0.0, -2.24, -3.92, -3.6, -4.6, -4.42, -3.53, -1.22, -1.14, -1.32, -1.32, -1.14, -1.07, 0.0, 0.0, 0.0, 0.0, 5.6, 4.09, 3.16, -0.0, -3.58, -6.4, -7.81, -10.96, -10.96, -11.34, -11.07, -11.44, -11.62, -11.99, -11.99, -12.09, -12.27, -12.45, -12.45, -12.16, -12.16, -12.16, -11.52, -11.28, -11.33, -11.03, -11.36, -11.06, -11.06, -11.06, -11.38, -11.37, -10.75, -10.73, -10.77, -10.47, -9.8, -9.17, -9.17, -8.21, -7.61, -7.61, -7.56, -7.58, -7.58, -7.9, -7.97, -8.03, -7.76, -7.44, -6.79, -5.53, -5.45, -6.5, -7.59, -7.27, -6.95, 0.0, 0.0, 8.05, 7.6, 5.37, 5.06, 4.74, 4.11, 3.16, 4.92, 4.92, 4.92, 7.6, -0.0, -0.0, 5.69, 5.69, 5.06, 5.37, 0.0, -0.0, -0.0, 0.0, 0.0, 0.0, 0.0, -4.05, -7.68, -9.54, -8.21, -5.8, -2.28, -2.06, -1.01, -0.81, 0.0, 0.0, 0.0, 0.0, 0.0, 0.0, 0.0, 3.79, 4.11, 2.2, -2.48, -4.98, -6.4, -10.96, -10.96, -10.96, -11.07, -11.44, -11.44, -11.72, -11.72, -12.09, -12.27, -12.45, -12.45, -12.45, -12.16, -12.16, -11.8, -11.52, -11.28, -11.33, -11.03, -11.06, -11.06, -11.06, -11.06, -11.06, -10.75, -10.73, -10.43, -10.47, -9.8, -9.17, -8.84, -8.21, -7.61, -7.61, -7.6, -7.58, -7.58, -7.55, -7.94, -8.38, -8.42, -7.41, -7.07, -7.15, -7.06, -7.95, -7.9, -8.03, -6.64, -4.0, 0.0, 0.0, 0.0, 0.0, -0.0, 4.74, 3.79, 3.48, 4.92, 4.92, 4.92, 5.09, 7.6, -0.0, -0.0, 5.06, -0.0, -0.0, 0.0, 0.0, -0.0, -8.94, -5.9, 0.0, 2.16, 1.02, -2.17, -6.21, -7.44, -5.86, -3.87, -2.21, 0.0, 0.0, 0.0, 0.95, 0.83, 0.78, 0.89, 0.0, 0.0, 0.0, -0.0, -0.0, -0.0, -3.79, -4.98, -11.22, -11.22, -10.96, -11.07, -11.07, -11.44, -11.35, -11.72, -11.72, -12.09, -12.09, -12.09, -12.45, -12.16, -11.8, -11.8, -11.52, -11.28, -10.99, -11.33, -10.75, -10.75, -10.75, -11.06, -11.06, -11.06, -11.06, -10.43, -10.06, -9.8, -9.77, -8.84, -8.22, -7.61, -7.61, -7.6, -7.9, -7.58, -7.9, -7.59, -7.97, -8.03, -8.06, -8.05, -8.43, -9.08, -7.9, -7.64, -6.63, -6.79, -6.01, -6.01, 0.0, 0.0, 0.0, 0.0, 0.0, 4.11, 5.36, 4.92, 4.92, 4.92, 7.15, 7.15, 7.6, 7.6, -0.0, 0.0, 0.0, 0.0, 0.0, -5.69, -8.94, -8.67, -2.17, 1.54, 3.68, 1.33, -1.16, -4.0, -3.47, -1.98, 0.0, 0.0, 0.84, 0.84, 0.89, 0.0, 0.0, 0.0, 0.0, -1.23, -4.43, -8.05, -0.0, -0.0, -3.0, -3.0, -10.68, -10.68, -10.96, -10.96, -11.07, -11.07, -11.16, -11.72, -11.72, -11.72, -12.09, -12.09, -12.09, -12.09, -11.8, -11.8, -11.8, -11.28, -11.28, -10.99, -11.05, -10.75, -10.75, -10.75, -10.75, -10.75, -10.74, -10.77, -10.41, -9.46, -9.77, -9.12, -8.53, -8.24, -7.61, -7.91, -7.9, -7.28, -7.59, -7.59, -7.94, -8.03, -8.03, -8.03, -9.16, -9.53, -8.37, -7.2, -6.52, -5.72, -6.32, -5.69, -5.69, 0.0, 0.0, 0.0, 0.0, 6.26, 5.81, 5.36, 5.36, 4.92, 4.66, 7.6, 7.6, 7.6, 7.6, 0.0, 0.0, 0.0, 0.0, -7.2, -9.39, -8.49, -9.11, -5.1, -1.11, 0.0, 0.0, 0.0, 0.0, 1.18, 2.06, 1.84, 0.93, 0.0, 0.0, 0.0, 0.0, 0.0, 0.0, -1.01, -4.29, -7.63, -6.01, -0.0, -0.0, -0.0, -10.68, -10.68, -10.96, -10.96, -11.07, -11.07, -11.16, -11.16, -11.16, -11.52, -11.72, -12.09, -12.09, -12.09, -11.8, -11.8, -11.8, -11.28, -11.28, -10.99, -11.33, -10.75, -10.75, -10.44, -10.44, -10.75, -10.74, -10.73, -10.09, -10.06, -9.46, -9.12, -8.84, -8.53, -8.24, -7.91, -7.91, -7.9, -7.59, -7.91, -7.61, -7.96, -8.03, -8.03, -8.02, -8.41, -7.27, -6.98, -7.28, -7.2, -5.95, -5.06, -5.37, -5.37, 0.0, 0.0, 0.0, 6.71, 6.26, 5.81, 5.36, 5.36, 4.66, 6.8, 7.6, 7.6, 8.05, 8.05, 7.15, 0.0, 0.0, -6.01, -8.67, -9.39, -9.03, -7.76, -5.72, -2.39, 0.0, 1.71, 6.87, 7.89, 6.18, 4.08, 1.13, 0.0, 0.0, -0.83, -0.78, -1.73, -0.89, -1.01, -3.68, -8.94, -8.94, -6.32, -6.32, -6.32, -10.68, -10.68, -10.79, -10.96, -11.07, -11.07, -11.44, -11.16, -11.52, -11.52, -11.52, -12.09, -11.8, -11.8, -11.8, -11.8, -11.8, -11.28, -11.28, -11.28, -11.33, -11.05, -10.75, -10.44, -10.44, -10.75, -10.74, -10.44, -10.09, -10.06, -9.8, -9.46, -9.12, -8.53, -8.24, -7.93, -7.91, -7.9, -8.21, -7.91, -7.58, -7.61, -7.64, -8.03, -7.68, -7.27, -6.4, -7.21, -6.98, -6.79, -5.69, -6.32, -5.06, -3.2, 0.0, 0.0, 0.0, 6.71, 6.26, 6.26, 5.81, 5.36, 5.36, 5.09, 8.05, 8.05, 8.05, 7.15, 7.6, 5.37, -0.0, -6.01, -8.94, -9.21, -9.33, -8.4, -5.86, -2.39, 0.0, 5.36, 11.18, 11.73, 8.4, 4.54, 1.25, 0.0, 0.0, -1.05, -2.21, -2.64, -2.69, -3.22, -6.94, -8.49, -8.49, -7.6, -7.6, -7.6, -10.68, -10.68, -10.79, -10.96, -10.96, -11.07, -11.07, -11.44, -11.52, -11.52, -11.52, -11.52, -12.09, -11.8, -11.8, -11.8, -11.8, -11.58, -11.28, -11.28, -11.28, -11.05, -11.05, -10.75, -10.44, -10.75, -10.43, -10.44, -10.09, -9.76, -10.06, -9.46, -9.46, -8.82, -8.24, -8.24, -8.22, -8.22, -8.21, -8.19, -7.58, -7.9, -7.61, -7.64, -7.27, -7.68, -6.48, -6.11, -6.87, -6.98, -6.01, -4.83, -4.22, -2.4, -2.26, 0.0, 0.0, 0.0, 4.74, 4.43, 5.2, 5.81, 5.36, 5.36, 5.51, 8.49, 8.05, 7.15, 6.4, 5.37, 2.54, -0.0, -8.0, -9.39, -8.91, -8.4, -5.21, -1.45, 2.49, 7.59, 11.42, 11.17, 7.14, 4.67, 2.72, 1.39, 0.0, -1.28, -3.87, -4.83, -2.26, -2.73, -5.21, -7.15, -7.6, -7.21, -7.21, -7.21, -10.68, -10.68, -11.06, -10.79, -11.16, -11.07, -11.07, -11.44, -11.16, -11.72, -11.99, -11.52, -11.88, -11.8, -11.8, -11.8, -11.8, -11.58, -11.58, -11.28, -11.28, -11.05, -11.05, -11.05, -11.05, -10.75, -10.74, -10.44, -10.11, -10.09, -9.76, -10.06, -9.48, -9.15, -8.54, -8.24, -8.53, -8.52, -8.21, -8.19, -7.85, -7.58, -7.27, -7.28, -6.95, -6.95, -6.95, -6.18, -5.82, -5.72, -4.71, -4.14, -2.99, -3.6, 0.0, 0.0, 0.0, 0.0, 4.74, 4.74, 4.43, 5.2, 5.36, 5.36, 5.36, 8.49, 7.6, 7.6, 8.05, -0.0, 2.69, -0.0, -0.0, -2.17, -0.0, -0.0, 0.0, 2.39, 6.95, 9.04, 8.73, 8.16, 6.97, 8.0, 6.66, 4.55, 0.0, -1.22, -2.83, -2.98, -2.2, 0.0, -3.79, -6.26, -6.58, -6.0, -6.0, -6.0, -10.68, -10.68, -11.06, -10.79, -10.79, -11.16, -11.44, -11.44, -11.44, -11.35, -11.99, -11.99, -11.52, -11.88, -11.58, -11.8, -11.8, -11.58, -11.58, -10.94, -10.94, -11.03, -11.05, -11.05, -11.05, -10.75, -10.74, -10.44, -10.11, -9.78, -10.09, -9.76, -9.48, -9.15, -8.85, -8.24, -8.53, -8.52, -8.49, -8.19, -7.85, -7.58, -7.25, -6.95, -6.95, -6.95, -6.64, -6.24, -5.89, -5.36, -4.94, -4.21, -3.6, -2.54, -1.84, 0.0, 0.0, 0.0, 0.0, 2.8, 4.43, 4.11, 5.36, 4.92, 4.92, 8.05, 7.6, 7.6, 8.05, 0.0, 0.0, 2.06, -0.0, -0.0, -0.0, 4.2, 9.39, 8.91, 8.91, 8.63, 7.56, 6.45, 9.17, 11.17, 9.67, 5.63, 2.39, 0.0, 0.0, 0.0, 0.0, 5.36, 0.0, -5.6, -6.0, -6.4, -6.4, -6.4, -10.51, -10.51, -10.88, -10.59, -10.79, -11.16, -11.23, -11.44, -11.44, -11.99, -11.99, -11.99, -12.09, -11.88, -11.58, -11.58, -11.8, -11.58, -11.58, -11.58, -11.28, -11.03, -11.05, -11.05, -11.05, -10.74, -10.74, -10.44, -10.11, -9.78, -9.8, -9.8, -9.48, -9.15, -8.85, -8.24, -8.53, -8.52, -8.82, -8.53, -8.19, -7.58, -7.58, -6.95, -6.95, -6.62, -6.28, -5.86, -5.76, -4.96, -4.12, -3.8, -3.35, -3.17, -1.49, -1.84, 0.0, 0.0, 0.0, 0.0, 2.8, 4.11, 5.36, 4.92, 4.92, 6.71, 6.71, 7.15, 7.21, 8.05, 0.0, 0.0, -0.0, -0.0, -0.0, 4.0, 8.0, 8.94, 8.94, 7.67, 6.32, 6.01, 8.22, 9.22, 7.49, 4.87, 0.0, 0.0, 4.4, 5.2, 5.81, 2.6, 2.2, -1.84, -4.43, -4.74, -4.74, -4.74, -10.51, -10.68, -11.06, -10.79, -10.79, -11.16, -11.23, -11.23, -11.44, -11.81, -11.72, -11.9, -12.09, -12.09, -11.88, -11.58, -11.58, -11.58, -11.58, -11.58, -11.28, -11.03, -11.36, -11.05, -11.03, -10.74, -11.06, -10.44, -10.43, -10.43, -9.8, -9.8, -9.48, -9.15, -8.85, -8.24, -8.53, -8.52, -8.82, -8.53, -8.19, -7.58, -7.58, -7.25, -6.95, -6.31, -5.94, -5.94, -5.86, -5.13, -4.96, -4.12, -3.8, -3.6, -2.99, -2.82, -1.73, 0.0, 0.0, 0.0, 0.0, 4.11, 3.79, 5.36, 4.92, 6.26, 6.26, 6.71, 7.15, 7.6, 8.05, 0.0, 8.94, -0.0, -0.0, -0.0, 6.01, 7.07, 8.49, 7.6, 6.01, 6.63, 6.32, 5.1, 3.76, 0.0, 1.14, 4.47, 4.47, 0.0, 0.0, 6.0, 1.7, -1.7, -3.49, -3.49, -3.49, -3.49, -10.68, -10.68, -10.68, -10.79, -10.79, -10.51, -10.87, -11.23, -11.23, -11.81, -11.72, -12.27, -12.27, -12.09, -12.09, -11.58, -11.58, -11.28, -11.28, -11.58, -11.28, -11.28, -11.03, -11.03, -11.03, -10.74, -11.06, -10.77, -10.43, -10.43, -9.8, -9.8, -9.48, -9.48, -8.85, -8.24, -8.53, -8.52, -8.49, -8.53, -8.19, -7.91, -7.58, -7.25, -6.95, -6.31, -6.31, -5.94, -5.86, -5.13, -4.6, -4.12, -3.8, -3.35, -3.6, -2.99, -3.4, -1.73, 0.0, 0.0, 0.0, 0.0, 3.79, 5.36, 5.36, 5.36, 6.71, 5.6, 5.94, 6.0, 5.06, 0.0, 8.94, 8.94, -0.0, -0.0, 2.69, 4.71, 6.01, 8.49, 7.07, 6.01, 4.83, 2.46, 0.0, 0.0, 6.8, 3.47, 0.0, -2.0, -1.84, 0.0, 2.8, -1.19, -2.95, -3.22, -3.22, -3.22, -10.51, -10.51, -10.68, -10.79, -10.79, -10.7, -11.07, -11.23, -11.23, -11.81, -11.72, -12.27, -12.27, -12.27, -12.09, -11.58, -11.58, -11.28, -11.28, -11.28, -11.28, -11.28, -11.03, -11.03, -11.03, -11.06, -10.73, -10.77, -10.43, -10.09, -9.8, -9.48, -9.48, -9.17, -8.54, -8.24, -8.53, -8.52, -8.49, -8.21, -8.19, -7.91, -7.58, -7.25, -6.95, -6.31, -6.31, -5.94, -5.86, -5.38, -4.6, -4.96, -4.5, -4.21, -3.6, -4.14, -2.82, -1.84, -1.73, 0.0, 0.0, 0.0, 0.0, 4.11, 5.81, 5.81, 0.0, 4.43, 4.74, 4.74, -0.0, -0.0, 0.0, 6.01, 6.32, -0.0, 2.69, 4.71, 6.01, 8.49, 8.49, 6.01, 2.99, 0.0, -1.27, 2.02, 10.28, 4.82, 0.0, -4.24, -3.48, -5.06, -0.0, -1.55, -2.68, -2.95, -2.95, -2.95, -10.51, -10.51, -10.51, -10.41, -10.79, -10.7, -11.07, -10.8, -11.16, -11.16, -11.72, -11.72, -12.27, -12.27, -12.09, -12.09, -11.58, -11.58, -11.28, -11.63, -11.28, -11.28, -11.03, -11.03, -10.74, -10.73, -10.73, -10.77, -10.43, -10.09, -9.8, -9.48, -9.17, -8.85, -8.85, -8.24, -8.53, -8.52, -8.49, -8.21, -8.19, -7.91, -7.58, -7.25, -6.95, -6.31, -6.31, -5.66, -5.86, -5.86, -5.49, -4.96, -4.5, -4.21, -4.71, -4.14, -3.91, -3.4, -1.73, -2.12, 0.0, 0.0, 0.0, 0.0, 0.0, 0.0, 5.81, 5.81, 5.06, 5.06, -0.0, -5.69, -5.37, 0.0, 0.0, -0.0, -0.0, -0.0, -0.0, 0.0, 0.0, 0.0, 1.2, 0.0, 0.0, 8.31, 10.18, 6.79, 2.84, -4.02, -4.47, -7.15, -5.37, -2.98, -3.48, -3.79, -3.79, -3.79, -10.51, -10.51, -10.51, -10.41, -10.41, -10.51, -11.07, -11.16, -11.16, -10.8, -11.35, -11.72, -12.09, -12.27, -12.27, -12.09, -11.8, -11.58, -11.28, -11.63, -11.63, -11.28, -11.03, -11.03, -10.42, -10.73, -11.04, -10.43, -10.43, -10.09, -9.8, -9.48, -9.17, -8.85, -8.85, -8.53, -8.53, -8.52, -8.21, -8.21, -7.88, -7.58, -7.58, -6.95, -6.95, -6.31, -6.31, -5.94, -5.59, -5.86, -5.49, -5.49, -4.5, -4.94, -4.71, -4.46, -4.14, -2.82, -3.4, -2.26, 0.0, 0.0, 0.0, 0.0, 0.0, 0.0, 4.74, 5.81, 5.06, -0.0, -0.0, -0.0, -5.69, -5.69, -0.0, -0.0, -5.69, -7.2, -8.49, -8.05, -5.69, -8.05, 1.1, 2.71, 1.83, 9.3, 7.28, 4.6, 2.84, -1.27, -4.84, -7.63, -5.69, -4.43, -4.84, -3.48, -3.48, -3.48, -10.51, -10.51, -10.51, -10.23, -10.41, -10.15, -10.51, -11.07, -10.87, -10.59, -11.16, -11.72, -11.72, -12.09, -12.09, -12.09, -11.8, -11.8, -11.28, -11.63, -11.63, -11.63, -11.36, -11.03, -10.73, -10.73, -10.77, -10.43, -10.43, -9.8, -9.48, -9.48, -8.85, -8.85, -8.85, -8.53, -8.21, -8.22, -7.9, -8.21, -7.88, -7.58, -7.25, -6.95, -6.95, -6.31, -6.31, -5.94, -6.28, -5.86, -5.38, -5.49, -5.36, -4.94, -4.94, -4.46, -4.14, -3.91, -3.4, -1.73, -2.26, 0.0, 0.0, 0.0, 0.0, 0.0, 0.0, 4.74, 4.43, -0.0, -0.0, -0.0, -6.01, -0.0, -0.0, -0.0, -6.01, -8.24, -8.77, -8.24, -7.63, -6.8, 0.0, 2.69, 3.98, 6.95, 5.72, 3.48, 2.51, -0.0, -2.76, -3.2, -3.6, -6.0, -5.2, -5.2, -5.2, -5.2, -10.51, -10.51, -10.51, -10.23, -10.79, -10.51, -10.51, -10.51, -10.87, -10.87, -10.8, -11.72, -11.72, -12.09, -12.09, -12.09, -11.8, -11.8, -11.52, -11.52, -11.33, -11.33, -11.63, -11.03, -10.73, -10.73, -10.77, -10.43, -10.09, -9.8, -9.48, -9.15, -8.85, -8.85, -8.53, -8.21, -8.21, -8.22, -8.22, -8.21, -8.21, -7.59, -7.27, -6.95, -6.95, -6.62, -6.31, -5.94, -5.94, -5.86, -5.59, -5.49, -5.36, -5.1, -4.94, -4.71, -4.46, -4.14, -3.91, -3.4, -1.73, -2.26, 0.0, 0.0, 0.0, 0.0, 0.0, 5.06, 6.71, -0.0, -0.0, -0.0, -5.37, -0.0, -0.0, -0.0, -0.0, -8.67, -8.77, -7.89, -7.89, -7.6, -5.37, 0.0, 0.0, 0.0, 6.4, 3.48, 2.73, 0.88, -0.96, -2.82, -5.95, -7.15, -7.15, -7.37, -7.37, -7.37, -10.51, -10.51, -10.51, -10.23, -10.79, -10.79, -10.3, -10.65, -10.87, -10.87, -10.59, -11.35, -11.72, -12.09, -12.09, -12.09, -11.8, -11.8, -11.8, -11.87, -11.58, -11.33, -11.33, -11.03, -10.73, -10.73, -10.43, -10.43, -10.09, -9.48, -9.8, -9.15, -8.85, -8.53, -8.53, -8.53, -7.91, -8.22, -8.22, -8.21, -8.21, -7.59, -7.59, -6.95, -6.95, -6.62, -6.62, -5.94, -5.94, -5.86, -5.59, -5.49, -5.49, -5.36, -4.94, -4.94, -4.46, -4.46, -4.14, -2.82, -3.2, -1.73, -2.26, -3.2, 0.0, 0.0, 0.0, 0.0, 7.15, -0.0, -5.06, -5.06, -5.06, -0.0, -2.4, -5.37, -7.2, -7.63, -8.33, -8.06, -7.89, -8.05, -8.24, -3.2, 0.0, 0.0, 0.0, 5.58, 4.43, 3.76, 1.41, -1.73, -6.8, -8.05, -8.49, -8.24, -8.24, -8.24, -10.51, -10.51, -10.51, -10.23, -10.59, -10.59, -10.3, -10.65, -10.65, -10.59, -10.59, -11.16, -11.72, -11.72, -12.09, -11.44, -11.44, -11.8, -11.8, -11.52, -11.87, -11.58, -11.33, -11.33, -10.99, -10.7, -10.43, -10.76, -10.13, -9.8, -9.8, -9.46, -9.46, -8.53, -8.53, -8.53, -8.21, -8.22, -8.22, -7.9, -7.9, -7.59, -7.59, -7.25, -6.95, -6.58, -6.62, -6.23, -5.94, -5.94, -5.86, -5.49, -5.49, -5.36, -5.1, -4.94, -4.68, -3.99, -3.6, -3.91, -2.82, -3.4, -3.97, -2.26, -3.2, -5.06, 0.0, 0.0, 0.0, 0.0, -6.26, -5.37, -5.06, -0.0, -3.2, -5.37, -5.69, -5.69, -6.7, -7.89, -7.89, -8.49, -8.33, -5.69, -2.97, -1.84, -2.71, 6.64, 8.24, 7.2, 6.08, 2.69, -6.32, -8.94, -8.94, -8.49, -8.49, -8.49, -10.51, -10.51, -10.51, -10.01, -10.01, -10.37, -10.3, -10.3, -10.65, -10.59, -10.59, -11.16, -11.72, -11.72, -11.72, -11.72, -11.44, -11.44, -11.8, -11.8, -11.52, -11.58, -11.33, -10.99, -10.99, -10.39, -10.43, -10.41, -10.13, -9.8, -9.8, -9.46, -9.12, -8.84, -8.84, -8.84, -8.53, -8.22, -8.22, -7.88, -7.58, -7.9, -7.9, -7.25, -7.25, -6.58, -6.58, -6.23, -5.94, -5.94, -5.86, -5.59, -5.49, -5.49, -5.1, -5.1, -4.5, -3.99, -4.46, -3.6, -3.91, -2.82, -3.4, -4.22, -5.37, -5.37, -7.6, -7.6, -8.05, -7.6, -6.71, -7.6, 0.0, 0.0, -0.0, -3.4, -4.56, -4.46, -4.46, -6.7, -8.24, -8.49, -8.06, -6.28, -4.0, -1.58, -1.91, 0.0, 9.83, 8.8, 8.0, 4.71, -0.0, -8.49, -8.06, -7.07, -7.07, -7.07, -10.31, -10.31, -10.68, -10.37, -10.37, -10.37, -10.3, -10.3, -10.3, -10.59, -10.59, -11.16, -11.72, -11.72, -11.72, -11.72, -11.44, -11.44, -11.44, -11.8, -11.52, -11.28, -10.99, -10.99, -10.69, -10.39, -10.7, -10.41, -10.41, -9.8, -9.8, -9.46, -9.12, -8.84, -8.84, -8.52, -8.22, -8.22, -8.22, -7.58, -7.58, -7.58, -7.58, -7.25, -7.25, -6.87, -6.58, -6.92, -6.23, -5.94, -5.86, -5.86, -5.49, -5.49, -4.96, -5.1, -4.5, -4.5, -3.99, -4.46, -3.6, -3.91, -4.56, -4.56, -4.22, -5.37, -7.6, -8.05, -8.05, -7.6, -6.71, -5.81, 0.0, 0.0, -0.0, -1.73, -2.66, -1.84, -4.22, -6.32, -7.89, -8.05, -7.74, -7.2, -5.31, -3.25, -1.76, -2.02, 0.0, 9.39, 8.4, 6.01, 6.01, 0.0, -3.8, -3.8, -3.8, -3.8, -10.31, -10.31, -10.68, -10.37, -10.37, -10.37, -10.3, -10.3, -10.3, -10.59, -10.59, -11.16, -11.72, -11.72, -11.72, -11.72, -11.44, -11.44, -11.44, -11.8, -11.52, -11.28, -10.99, -10.99, -10.69, -10.39, -10.7, -10.41, -10.41, -9.8, -9.8, -9.46, -9.12, -8.84, -8.84, -8.52, -8.22, -8.22, -8.22, -7.58, -7.58, -7.58, -7.58, -7.25, -7.25, -6.87, -6.58, -6.92, -6.23, -5.94, -5.86, -5.86, -5.49, -5.49, -4.96, -5.1, -4.5, -4.5, -3.99, -4.46, -3.6, -3.91, -4.56, -4.56, -4.22, -5.37, -7.6, -8.05, -8.05, -7.6, -6.71, -5.81, 0.0, 0.0, -0.0, -1.73, -3.4, -1.84, -4.22, -6.32, -7.89, -8.05, -7.74, -7.4, -5.69, -4.0, -2.97, -1.62, -1.93, 0.0, 0.0, 0.0, 0.0, 0.0, -2.69, -1.67, -1.67, -1.67]}]